FW1385 Weather Reports


Display with metric or nautical units.
time (UTC)temp
F
wind
direction
speed
MPH
gust
MPH
rain 1hr
in
rain 24hr
in
rain mn
in
humidity
%
barometer
mb
20260510153803 80 304 1.0 7.0 0.00 0.00 0.00 61 1014.6
20260510153703 80 300 1.0 7.0 0.00 0.00 0.00 61 1014.5
20260510153604 80 302 1.0 7.0 0.00 0.00 0.00 59 1014.6
20260510153503 80 307 1.0 7.0 0.00 0.00 0.00 60 1014.6
20260510153417 80 312 0.0 5.0 0.00 0.00 0.00 60 1014.6
20260510153403 80 315 0.0 3.0 0.00 0.00 0.00 60 1014.6
20260510153303 80 303 0.0 3.0 0.00 0.00 0.00 64 1014.6
20260510153103 80 284 0.0 2.0 0.00 0.00 0.00 64 1014.6
20260510153003 80 0 0.0 0.0 0.00 0.00 0.00 65 1014.6
20260510152803 80 0 0.0 0.0 0.00 0.00 0.00 65 1014.6
20260510152703 80 0 0.0 0.0 0.00 0.00 0.00 65 1014.6
20260510152603 80 0 0.0 0.0 0.00 0.00 0.00 65 1014.6
20260510152504 80 0 0.0 0.0 0.00 0.00 0.00 65 1014.6
20260510152403 80 0 0.0 0.0 0.00 0.00 0.00 65 1014.5
20260510152307 80 0 0.0 0.0 0.00 0.00 0.00 64 1014.6
20260510152203 80 0 0.0 0.0 0.00 0.00 0.00 65 1014.6
20260510152103 80 0 0.0 0.0 0.00 0.00 0.00 64 1014.6
20260510152003 80 0 0.0 0.0 0.00 0.00 0.00 65 1014.6
20260510151904 80 185 0.0 1.0 0.00 0.00 0.00 65 1014.6
20260510151803 80 185 0.0 2.0 0.00 0.00 0.00 64 1014.6
20260510151703 80 185 0.0 2.0 0.00 0.00 0.00 66 1014.6
20260510151603 80 185 0.0 2.0 0.00 0.00 0.00 67 1014.6
20260510151504 79 184 0.0 2.0 0.00 0.00 0.00 67 1014.6
20260510151404 79 184 0.0 2.0 0.00 0.00 0.00 68 1014.6
20260510151303 79 184 1.0 2.0 0.00 0.00 0.00 68 1014.6
20260510151203 79 183 1.0 2.0 0.00 0.00 0.00 68 1014.6
20260510151118 79 182 1.0 2.0 0.00 0.00 0.00 68 1014.5
20260510151103 79 181 1.0 2.0 0.00 0.00 0.00 68 1014.5
20260510151004 79 182 1.0 2.0 0.00 0.00 0.00 69 1014.5
20260510150918 79 184 1.0 2.0 0.00 0.00 0.00 68 1014.5
20260510150818 78 193 1.0 2.0 0.00 0.00 0.00 69 1014.6
20260510150803 78 194 1.0 2.0 0.00 0.00 0.00 69 1014.6
20260510150504 78 224 1.0 3.0 0.00 0.00 0.00 70 1014.6
20260510150416 78 232 1.0 3.0 0.00 0.00 0.00 70 1014.6
20260510150403 78 237 1.0 3.0 0.00 0.00 0.00 70 1014.6
20260510150304 78 261 1.0 3.0 0.00 0.00 0.00 70 1014.6
20260510150103 77 297 0.0 3.0 0.00 0.00 0.00 70 1014.5
20260510150017 77 302 0.0 3.0 0.00 0.00 0.00 70 1014.5
20260510150004 77 301 0.0 3.0 0.00 0.00 0.00 70 1014.6
20260510145904 77 306 0.0 3.0 0.00 0.00 0.00 70 1014.6
20260510145705 77 111 0.0 1.0 0.00 0.00 0.00 70 1014.6
20260510145603 77 0 0.0 0.0 0.00 0.00 0.00 70 1014.6
20260510145504 77 0 0.0 0.0 0.00 0.00 0.00 71 1014.6
20260510145404 77 0 0.0 0.0 0.00 0.00 0.00 71 1014.6
20260510145317 77 0 0.0 0.0 0.00 0.00 0.00 72 1014.6
20260510145204 77 0 0.0 0.0 0.00 0.00 0.00 74 1014.6
20260510145118 77 0 0.0 0.0 0.00 0.00 0.00 73 1014.5
20260510145017 77 56 0.0 1.0 0.00 0.00 0.00 72 1014.5
20260510145004 77 58 0.0 2.0 0.00 0.00 0.00 72 1014.5
20260510144703 76 90 0.0 2.0 0.00 0.00 0.00 74 1014.5
20260510144603 76 89 0.0 2.0 0.00 0.00 0.00 73 1014.5
20260510144504 76 89 0.0 2.0 0.00 0.00 0.00 73 1014.5
20260510144304 76 89 1.0 2.0 0.00 0.00 0.00 74 1014.6
20260510144203 76 89 1.0 2.0 0.00 0.00 0.00 74 1014.6
20260510144103 76 90 1.0 2.0 0.00 0.00 0.00 74 1014.6
20260510144004 76 92 1.0 2.0 0.00 0.00 0.00 75 1014.6
20260510143904 76 90 1.0 2.0 0.00 0.00 0.00 76 1014.6
20260510143803 76 90 1.0 2.0 0.00 0.00 0.00 76 1014.6
20260510143703 75 91 1.0 2.0 0.00 0.00 0.00 76 1014.5
20260510143603 75 91 1.0 2.0 0.00 0.00 0.00 76 1014.5
20260510143504 75 92 1.0 2.0 0.00 0.00 0.00 76 1014.7
20260510143404 75 93 1.0 2.0 0.00 0.00 0.00 77 1014.7
20260510143304 75 94 1.0 2.0 0.00 0.00 0.00 77 1014.6
20260510143203 75 94 1.0 2.0 0.00 0.00 0.00 77 1014.6
20260510143103 75 95 1.0 2.0 0.00 0.00 0.00 76 1014.6
20260510143003 75 96 1.0 2.0 0.00 0.00 0.00 76 1014.6
20260510142903 75 97 1.0 2.0 0.00 0.00 0.00 76 1014.6
20260510142803 74 97 1.0 2.0 0.00 0.00 0.00 77 1014.6
20260510142703 74 97 1.0 2.0 0.00 0.00 0.00 78 1014.6
20260510142603 74 97 1.0 2.0 0.00 0.00 0.00 78 1014.6
20260510142403 74 97 1.0 2.0 0.00 0.00 0.00 78 1014.6
20260510142306 74 97 1.0 2.0 0.00 0.00 0.00 78 1014.6
20260510142204 74 97 1.0 2.0 0.00 0.00 0.00 78 1014.6
20260510142103 74 97 1.0 2.0 0.00 0.00 0.00 79 1014.6
20260510142004 74 97 0.0 2.0 0.00 0.00 0.00 79 1014.7
20260510141903 74 97 0.0 2.0 0.00 0.00 0.00 79 1014.7
20260510141803 74 97 0.0 2.0 0.00 0.00 0.00 79 1014.7
20260510141704 74 97 0.0 2.0 0.00 0.00 0.00 79 1014.7
20260510141603 73 97 1.0 2.0 0.00 0.00 0.00 79 1014.6
20260510141504 73 97 1.0 2.0 0.00 0.00 0.00 79 1014.6
20260510141404 73 97 1.0 2.0 0.00 0.00 0.00 80 1014.6
20260510141203 73 97 1.0 2.0 0.00 0.00 0.00 80 1014.7
20260510141103 73 93 1.0 3.0 0.00 0.00 0.00 80 1014.7
20260510141003 72 96 1.0 3.0 0.00 0.00 0.00 80 1014.7
20260510140903 72 97 1.0 3.0 0.00 0.00 0.00 80 1014.7
20260510140803 72 99 1.0 3.0 0.00 0.00 0.00 81 1014.7
20260510140703 72 106 1.0 3.0 0.00 0.00 0.00 81 1014.8
20260510140603 72 108 1.0 3.0 0.00 0.00 0.00 81 1014.8
20260510140503 72 112 1.0 3.0 0.00 0.00 0.00 81 1014.8
20260510140418 72 116 1.0 3.0 0.00 0.00 0.00 81 1014.8
20260510140404 72 117 1.0 3.0 0.00 0.00 0.00 81 1014.8
20260510140304 72 126 1.0 3.0 0.00 0.00 0.00 81 1014.8
20260510140104 71 148 1.0 2.0 0.00 0.00 0.00 82 1014.8
20260510140003 71 143 1.0 2.0 0.00 0.00 0.00 82 1014.8
20260510135903 71 140 1.0 2.0 0.00 0.00 0.00 82 1014.8
20260510135818 71 139 1.0 2.0 0.00 0.00 0.00 83 1014.8
20260510135804 71 138 1.0 2.0 0.00 0.00 0.00 83 1014.8
20260510135704 71 135 1.0 2.0 0.00 0.00 0.00 83 1014.8
20260510135403 71 133 1.0 2.0 0.00 0.00 0.00 84 1014.8
20260510135306 70 103 1.0 2.0 0.00 0.00 0.00 84 1014.7
20260510135203 70 90 1.0 2.0 0.00 0.00 0.00 85 1014.7
20260510135118 70 66 1.0 2.0 0.00 0.00 0.00 85 1014.8
20260510135103 70 64 1.0 2.0 0.00 0.00 0.00 85 1014.8
20260510135003 70 58 1.0 2.0 0.00 0.00 0.00 85 1014.8
20260510134803 70 4 1.0 2.0 0.00 0.00 0.00 85 1014.8
20260510134718 70 6 1.0 2.0 0.00 0.00 0.00 86 1014.8
20260510134704 70 12 1.0 2.0 0.00 0.00 0.00 86 1014.8
20260510134604 69 26 1.0 2.0 0.00 0.00 0.00 86 1014.9
20260510134519 69 29 0.0 2.0 0.00 0.00 0.00 87 1014.9
20260510134404 69 36 0.0 2.0 0.00 0.00 0.00 87 1014.8
20260510134203 69 36 0.0 2.0 0.00 0.00 0.00 88 1014.9
20260510134103 69 36 0.0 2.0 0.00 0.00 0.00 88 1014.8
20260510134004 69 35 0.0 2.0 0.00 0.00 0.00 88 1014.7
20260510133804 68 35 0.0 2.0 0.00 0.00 0.00 88 1014.7
20260510133704 68 33 0.0 1.0 0.00 0.00 0.00 89 1014.7
20260510133603 68 0 0.0 0.0 0.00 0.00 0.00 89 1014.7
20260510133503 68 0 0.0 0.0 0.00 0.00 0.00 90 1014.7
20260510133403 68 0 0.0 0.0 0.00 0.00 0.00 90 1014.7
20260510133203 67 33 0.0 1.0 0.00 0.00 0.00 91 1014.7
20260510133103 67 33 0.0 2.0 0.00 0.00 0.00 91 1014.7
20260510133003 67 33 0.0 2.0 0.00 0.00 0.00 91 1014.7
20260510132804 67 33 0.0 2.0 0.00 0.00 0.00 91 1014.7
20260510132703 67 33 0.0 2.0 0.00 0.00 0.00 91 1014.6
20260510132603 66 31 0.0 2.0 0.00 0.00 0.00 91 1014.6
20260510132504 66 22 0.0 2.0 0.00 0.00 0.00 91 1014.7
20260510132403 66 20 0.0 2.0 0.00 0.00 0.00 91 1014.7
20260510132306 66 17 0.0 2.0 0.00 0.00 0.00 91 1014.6
20260510132203 66 15 0.0 2.0 0.00 0.00 0.00 91 1014.7
20260510132103 66 1 1.0 2.0 0.00 0.00 0.00 92 1014.7
20260510132004 66 357 1.0 2.0 0.00 0.00 0.00 92 1014.7
20260510131903 66 347 1.0 2.0 0.00 0.00 0.00 93 1014.7
20260510131804 66 340 1.0 3.0 0.00 0.00 0.00 93 1014.7
20260510131703 66 339 1.0 3.0 0.00 0.00 0.00 93 1014.7
20260510131603 66 338 1.0 3.0 0.00 0.00 0.00 94 1014.7
20260510131503 65 333 1.0 3.0 0.00 0.00 0.00 94 1014.6
20260510131403 65 323 1.0 3.0 0.00 0.00 0.00 94 1014.6
20260510131303 65 322 1.0 3.0 0.00 0.00 0.00 95 1014.7
20260510131204 65 322 1.0 3.0 0.00 0.00 0.00 95 1014.7
20260510131104 64 316 1.0 3.0 0.00 0.00 0.00 95 1014.7
20260510131003 64 312 0.0 3.0 0.00 0.00 0.00 95 1014.7
20260510130904 64 288 0.0 3.0 0.00 0.00 0.00 96 1014.7
20260510130817 64 243 0.0 2.0 0.00 0.00 0.00 96 1014.7
20260510130804 64 227 0.0 2.0 0.00 0.00 0.00 96 1014.7
20260510130703 64 227 0.0 2.0 0.00 0.00 0.00 96 1014.6
20260510130504 63 227 0.0 2.0 0.00 0.00 0.00 96 1014.7
20260510130418 63 0 0.0 0.0 0.00 0.00 0.00 96 1014.7
20260510130403 63 0 0.0 0.0 0.00 0.00 0.00 96 1014.6
20260510130304 63 0 0.0 0.0 0.00 0.00 0.00 96 1014.6
20260510130104 62 0 0.0 0.0 0.00 0.00 0.00 96 1014.6
20260510130004 62 0 0.0 0.0 0.00 0.00 0.00 96 1014.6
20260510125903 62 0 0.0 0.0 0.00 0.00 0.00 96 1014.6
20260510125803 62 0 0.0 0.0 0.00 0.00 0.00 96 1014.6
20260510125603 62 0 0.0 0.0 0.00 0.00 0.00 96 1014.6
20260510125503 62 0 0.0 0.0 0.00 0.00 0.00 96 1014.5
20260510125403 62 0 0.0 0.0 0.00 0.00 0.00 96 1014.5
20260510125306 61 0 0.0 0.0 0.00 0.00 0.00 97 1014.5
20260510125204 61 0 0.0 0.0 0.00 0.00 0.00 96 1014.4
20260510125103 61 0 0.0 0.0 0.00 0.00 0.00 96 1014.5
20260510125004 61 0 0.0 0.0 0.00 0.00 0.00 96 1014.5
20260510124903 61 0 0.0 0.0 0.00 0.00 0.00 96 1014.5
20260510124803 61 0 0.0 0.0 0.00 0.00 0.00 96 1014.5
20260510124703 60 0 0.0 0.0 0.00 0.00 0.00 96 1014.5
20260510124604 60 0 0.0 0.0 0.00 0.00 0.00 96 1014.4
20260510124504 60 0 0.0 0.0 0.00 0.00 0.00 96 1014.4
20260510124403 60 0 0.0 0.0 0.00 0.00 0.00 96 1014.3
20260510124304 60 0 0.0 0.0 0.00 0.00 0.00 96 1014.3
20260510124203 60 0 0.0 0.0 0.00 0.00 0.00 96 1014.3
20260510124003 60 0 0.0 0.0 0.00 0.00 0.00 96 1014.4
20260510123904 59 0 0.0 0.0 0.00 0.00 0.00 96 1014.4
20260510123803 59 0 0.0 0.0 0.00 0.00 0.00 96 1014.4
20260510123704 59 0 0.0 0.0 0.00 0.00 0.00 96 1014.4
20260510123603 59 0 0.0 0.0 0.00 0.00 0.00 96 1014.3
20260510123503 59 0 0.0 0.0 0.00 0.00 0.00 96 1014.3
20260510123403 59 0 0.0 0.0 0.00 0.00 0.00 96 1014.3
20260510123303 59 0 0.0 0.0 0.00 0.00 0.00 96 1014.3
20260510123203 58 0 0.0 0.0 0.00 0.00 0.00 96 1014.3
20260510123103 58 0 0.0 0.0 0.00 0.00 0.00 96 1014.3
20260510123003 58 0 0.0 0.0 0.00 0.00 0.00 96 1014.3
20260510122904 58 0 0.0 0.0 0.00 0.00 0.00 96 1014.3
20260510122703 57 0 0.0 0.0 0.00 0.00 0.00 96 1014.2
20260510122603 57 0 0.0 0.0 0.00 0.00 0.00 96 1014.2
20260510122503 57 0 0.0 0.0 0.00 0.00 0.00 96 1014.2
20260510122403 57 0 0.0 0.0 0.00 0.00 0.00 96 1014.3
20260510122306 56 0 0.0 0.0 0.00 0.00 0.00 96 1014.2
20260510122104 56 0 0.0 0.0 0.00 0.00 0.00 96 1014.2
20260510122004 56 0 0.0 0.0 0.00 0.00 0.00 96 1014.2
20260510121904 56 0 0.0 0.0 0.00 0.00 0.00 96 1014.2
20260510121803 56 0 0.0 0.0 0.00 0.00 0.00 96 1014.2
20260510121603 55 0 0.0 0.0 0.00 0.00 0.00 95 1014.2
20260510121503 55 0 0.0 0.0 0.00 0.00 0.00 95 1014.1
20260510121403 55 0 0.0 0.0 0.00 0.00 0.00 95 1014.1
20260510121303 55 0 0.0 0.0 0.00 0.00 0.00 95 1014.2
20260510121203 55 0 0.0 0.0 0.00 0.00 0.00 95 1014.2
20260510121104 55 0 0.0 0.0 0.00 0.00 0.00 95 1014.2
20260510121003 54 0 0.0 0.0 0.00 0.00 0.00 95 1014.1
20260510120803 54 0 0.0 0.0 0.00 0.00 0.00 95 1014.0
20260510120703 54 0 0.0 0.0 0.00 0.00 0.00 95 1014.0
20260510120603 54 0 0.0 0.0 0.00 0.00 0.00 95 1014.0
20260510120503 54 0 0.0 0.0 0.00 0.00 0.00 94 1014.0
20260510120404 54 0 0.0 0.0 0.00 0.00 0.00 94 1014.0
20260510120318 54 0 0.0 0.0 0.00 0.00 0.00 94 1014.0
20260510120303 53 0 0.0 0.0 0.00 0.00 0.00 94 1014.0
20260510120117 53 0 0.0 0.0 0.00 0.00 0.00 94 1013.9
20260510120004 53 0 0.0 0.0 0.00 0.00 0.00 94 1013.9
20260510115703 53 0 0.0 0.0 0.00 0.00 0.00 94 1014.0
20260510115603 53 0 0.0 0.0 0.00 0.00 0.00 94 1014.0
20260510115503 53 0 0.0 0.0 0.00 0.00 0.00 94 1014.0
20260510115403 53 0 0.0 0.0 0.00 0.00 0.00 94 1014.0
20260510115203 53 0 0.0 0.0 0.00 0.00 0.00 93 1013.9
20260510115103 53 0 0.0 0.0 0.00 0.00 0.00 93 1013.9
20260510115003 53 0 0.0 0.0 0.00 0.00 0.00 93 1013.9
20260510114903 53 0 0.0 0.0 0.00 0.00 0.00 93 1013.9
20260510114804 52 0 0.0 0.0 0.00 0.00 0.00 93 1013.9
20260510114704 52 0 0.0 0.0 0.00 0.00 0.00 93 1013.8
20260510114603 52 0 0.0 0.0 0.00 0.00 0.00 93 1013.8
20260510114503 52 0 0.0 0.0 0.00 0.00 0.00 93 1013.8
20260510114417 52 0 0.0 0.0 0.00 0.00 0.00 93 1013.8
20260510114403 52 0 0.0 0.0 0.00 0.00 0.00 93 1013.9
20260510114303 52 0 0.0 0.0 0.00 0.00 0.00 93 1013.9
20260510114103 52 0 0.0 0.0 0.00 0.00 0.00 93 1013.8
20260510114003 52 0 0.0 0.0 0.00 0.00 0.00 93 1013.8
20260510113904 52 0 0.0 0.0 0.00 0.00 0.00 93 1013.7
20260510113803 52 0 0.0 0.0 0.00 0.00 0.00 93 1013.7
20260510113703 52 0 0.0 0.0 0.00 0.00 0.00 93 1013.7
20260510113603 52 0 0.0 0.0 0.00 0.00 0.00 93 1013.7
20260510113504 52 0 0.0 0.0 0.00 0.00 0.00 93 1013.6
20260510113403 52 0 0.0 0.0 0.00 0.00 0.00 93 1013.5
20260510113303 52 0 0.0 0.0 0.00 0.00 0.00 93 1013.5
20260510113204 52 0 0.0 0.0 0.00 0.00 0.00 93 1013.5
20260510113103 52 0 0.0 0.0 0.00 0.00 0.00 93 1013.5
20260510113004 52 0 0.0 0.0 0.00 0.00 0.00 93 1013.5
20260510112903 52 0 0.0 0.0 0.00 0.00 0.00 93 1013.5
20260510112804 52 0 0.0 0.0 0.00 0.00 0.00 93 1013.5
20260510112703 52 0 0.0 0.0 0.00 0.00 0.00 93 1013.5
20260510112603 52 0 0.0 0.0 0.00 0.00 0.00 93 1013.5
20260510112503 52 0 0.0 0.0 0.00 0.00 0.00 93 1013.5
20260510112403 52 0 0.0 0.0 0.00 0.00 0.00 92 1013.4
20260510112306 52 0 0.0 0.0 0.00 0.00 0.00 92 1013.4
20260510112203 52 0 0.0 0.0 0.00 0.00 0.00 92 1013.5
20260510112103 52 0 0.0 0.0 0.00 0.00 0.00 92 1013.5
20260510112003 52 0 0.0 0.0 0.00 0.00 0.00 92 1013.5
20260510111903 52 0 0.0 0.0 0.00 0.00 0.00 92 1013.5
20260510111803 52 0 0.0 0.0 0.00 0.00 0.00 92 1013.5
20260510111704 52 0 0.0 0.0 0.00 0.00 0.00 92 1013.5
20260510111603 52 0 0.0 0.0 0.00 0.00 0.00 92 1013.5
20260510111503 52 0 0.0 0.0 0.00 0.00 0.00 92 1013.5
20260510111404 52 0 0.0 0.0 0.00 0.00 0.00 92 1013.5
20260510111303 52 0 0.0 0.0 0.00 0.00 0.00 92 1013.5
20260510111203 52 0 0.0 0.0 0.00 0.00 0.00 92 1013.5
20260510111103 52 0 0.0 0.0 0.00 0.00 0.00 92 1013.4
20260510111003 52 0 0.0 0.0 0.00 0.00 0.00 92 1013.4
20260510110903 52 0 0.0 0.0 0.00 0.00 0.00 92 1013.4
20260510110803 52 0 0.0 0.0 0.00 0.00 0.00 92 1013.3
20260510110703 52 0 0.0 0.0 0.00 0.00 0.00 92 1013.3
20260510110604 52 0 0.0 0.0 0.00 0.00 0.00 92 1013.3
20260510110518 52 0 0.0 0.0 0.00 0.00 0.00 92 1013.3
20260510110404 52 0 0.0 0.0 0.00 0.00 0.00 92 1013.3
20260510110104 52 0 0.0 0.0 0.00 0.00 0.00 92 1013.2
20260510110003 52 0 0.0 0.0 0.00 0.00 0.00 92 1013.2
20260510105903 52 0 0.0 0.0 0.00 0.00 0.00 92 1013.2
20260510105703 52 0 0.0 0.0 0.00 0.00 0.00 92 1013.2
20260510105604 52 0 0.0 0.0 0.00 0.00 0.00 92 1013.1
20260510105503 52 0 0.0 0.0 0.00 0.00 0.00 92 1013.2
20260510105403 52 0 0.0 0.0 0.00 0.00 0.00 92 1013.2
20260510105306 52 0 0.0 0.0 0.00 0.00 0.00 92 1013.1
20260510105203 52 0 0.0 0.0 0.00 0.00 0.00 92 1013.1
20260510105103 52 0 0.0 0.0 0.00 0.00 0.00 92 1013.1
20260510105004 52 0 0.0 0.0 0.00 0.00 0.00 92 1013.1
20260510104903 52 0 0.0 0.0 0.00 0.00 0.00 92 1013.1
20260510104704 52 0 0.0 0.0 0.00 0.00 0.00 92 1013.1
20260510104604 52 0 0.0 0.0 0.00 0.00 0.00 92 1013.1
20260510104503 52 0 0.0 0.0 0.00 0.00 0.00 92 1013.1
20260510104403 52 0 0.0 0.0 0.00 0.00 0.00 92 1013.1
20260510104304 52 0 0.0 0.0 0.00 0.00 0.00 92 1013.1
20260510104203 52 0 0.0 0.0 0.00 0.00 0.00 92 1013.1
20260510104103 52 0 0.0 0.0 0.00 0.00 0.00 92 1013.1
20260510104003 52 0 0.0 0.0 0.00 0.00 0.00 92 1013.1
20260510103903 52 0 0.0 0.0 0.00 0.00 0.00 92 1013.1
20260510103803 52 0 0.0 0.0 0.00 0.00 0.00 92 1013.0
20260510103719 52 0 0.0 0.0 0.00 0.00 0.00 92 1013.0
20260510103704 52 0 0.0 0.0 0.00 0.00 0.00 92 1013.1
20260510103518 52 0 0.0 0.0 0.00 0.00 0.00 92 1013.0
20260510103404 52 0 0.0 0.0 0.00 0.00 0.00 92 1013.0
20260510103203 52 0 0.0 0.0 0.00 0.00 0.00 92 1013.1
20260510103104 52 0 0.0 0.0 0.00 0.00 0.00 92 1013.1
20260510103003 52 0 0.0 0.0 0.00 0.00 0.00 92 1013.0
20260510102903 52 0 0.0 0.0 0.00 0.00 0.00 92 1013.0
20260510102818 52 0 0.0 0.0 0.00 0.00 0.00 92 1013.0
20260510102703 52 0 0.0 0.0 0.00 0.00 0.00 92 1013.0
20260510102503 52 0 0.0 0.0 0.00 0.00 0.00 92 1013.0
20260510102403 52 0 0.0 0.0 0.00 0.00 0.00 92 1013.0
20260510102306 52 0 0.0 0.0 0.00 0.00 0.00 92 1013.0
20260510102203 52 0 0.0 0.0 0.00 0.00 0.00 92 1012.9
20260510102003 52 0 0.0 0.0 0.00 0.00 0.00 92 1012.9
20260510101904 52 0 0.0 0.0 0.00 0.00 0.00 92 1012.9
20260510101804 52 0 0.0 0.0 0.00 0.00 0.00 92 1012.9
20260510101603 52 0 0.0 0.0 0.00 0.00 0.00 92 1012.9
20260510101504 52 0 0.0 0.0 0.00 0.00 0.00 92 1012.9
20260510101404 52 0 0.0 0.0 0.00 0.00 0.00 92 1012.9
20260510101303 52 0 0.0 0.0 0.00 0.00 0.00 92 1012.9
20260510101104 52 0 0.0 0.0 0.00 0.00 0.00 92 1012.9
20260510101004 52 0 0.0 0.0 0.00 0.00 0.00 92 1012.8
20260510100804 53 0 0.0 0.0 0.00 0.00 0.00 92 1012.8
20260510100703 53 0 0.0 0.0 0.00 0.00 0.00 92 1012.7
20260510100603 53 0 0.0 0.0 0.00 0.00 0.00 92 1012.7
20260510100503 53 0 0.0 0.0 0.00 0.00 0.00 92 1012.7
20260510100403 53 0 0.0 0.0 0.00 0.00 0.00 92 1012.7
20260510100303 53 0 0.0 0.0 0.00 0.00 0.00 92 1012.7
20260510100204 53 0 0.0 0.0 0.00 0.00 0.00 92 1012.6
20260510100104 53 0 0.0 0.0 0.00 0.00 0.00 92 1012.6
20260510100004 53 0 0.0 0.0 0.00 0.00 0.00 92 1012.6
20260510095804 53 0 0.0 0.0 0.00 0.00 0.00 92 1012.6
20260510095703 53 0 0.0 0.0 0.00 0.00 0.00 92 1012.6
20260510095603 53 0 0.0 0.0 0.00 0.00 0.00 92 1012.6
20260510095503 53 0 0.0 0.0 0.00 0.00 0.00 92 1012.6
20260510095404 53 0 0.0 0.0 0.00 0.00 0.00 92 1012.5
20260510095104 53 0 0.0 0.0 0.00 0.00 0.00 92 1012.5
20260510095003 53 0 0.0 0.0 0.00 0.00 0.00 92 1012.5
20260510094903 53 0 0.0 0.0 0.00 0.00 0.00 92 1012.5
20260510094804 53 0 0.0 0.0 0.00 0.00 0.00 92 1012.5
20260510094703 53 0 0.0 0.0 0.00 0.00 0.00 92 1012.5
20260510094603 53 0 0.0 0.0 0.00 0.00 0.00 92 1012.4
20260510094503 53 0 0.0 0.0 0.00 0.00 0.00 92 1012.4
20260510094403 53 0 0.0 0.0 0.00 0.00 0.00 92 1012.4
20260510094304 53 0 0.0 0.0 0.00 0.00 0.00 92 1012.4
20260510094204 53 0 0.0 0.0 0.00 0.00 0.00 92 1012.4
20260510094118 53 0 0.0 0.0 0.00 0.00 0.00 92 1012.4
20260510094004 53 0 0.0 0.0 0.00 0.00 0.00 92 1012.4
20260510093804 53 0 0.0 0.0 0.00 0.00 0.00 92 1012.4
20260510093703 53 0 0.0 0.0 0.00 0.00 0.00 92 1012.4
20260510093603 53 0 0.0 0.0 0.00 0.00 0.00 92 1012.3
20260510093503 53 0 0.0 0.0 0.00 0.00 0.00 92 1012.3
20260510093403 53 0 0.0 0.0 0.00 0.00 0.00 92 1012.3
20260510093303 53 0 0.0 0.0 0.00 0.00 0.00 92 1012.3
20260510093204 53 0 0.0 0.0 0.00 0.00 0.00 92 1012.3
20260510093103 53 0 0.0 0.0 0.00 0.00 0.00 92 1012.3
20260510093003 53 0 0.0 0.0 0.00 0.00 0.00 92 1012.4
20260510092904 53 0 0.0 0.0 0.00 0.00 0.00 92 1012.4
20260510092803 53 0 0.0 0.0 0.00 0.00 0.00 92 1012.4
20260510092703 53 0 0.0 0.0 0.00 0.00 0.00 92 1012.4
20260510092603 53 0 0.0 0.0 0.00 0.00 0.00 92 1012.4
20260510092503 53 0 0.0 0.0 0.00 0.00 0.00 92 1012.3
20260510092403 53 0 0.0 0.0 0.00 0.00 0.00 92 1012.3
20260510092306 53 0 0.0 0.0 0.00 0.00 0.00 92 1012.4
20260510092204 53 0 0.0 0.0 0.00 0.00 0.00 92 1012.4
20260510092103 53 0 0.0 0.0 0.00 0.00 0.00 92 1012.4
20260510092004 53 0 0.0 0.0 0.00 0.00 0.00 92 1012.3
20260510091904 53 0 0.0 0.0 0.00 0.00 0.00 92 1012.3
20260510091803 53 0 0.0 0.0 0.00 0.00 0.00 92 1012.2
20260510091717 53 0 0.0 0.0 0.00 0.00 0.00 92 1012.2
20260510091703 53 0 0.0 0.0 0.00 0.00 0.00 92 1012.3
20260510091617 53 0 0.0 0.0 0.00 0.00 0.00 92 1012.3
20260510091304 53 0 0.0 0.0 0.00 0.00 0.00 92 1012.2
20260510091203 53 0 0.0 0.0 0.00 0.00 0.00 92 1012.3
20260510091118 53 0 0.0 0.0 0.00 0.00 0.00 92 1012.3
20260510091003 53 0 0.0 0.0 0.00 0.00 0.00 92 1012.2
20260510090803 53 0 0.0 0.0 0.00 0.00 0.00 92 1012.2
20260510090703 53 0 0.0 0.0 0.00 0.00 0.00 92 1012.2
20260510090603 53 0 0.0 0.0 0.00 0.00 0.00 92 1012.2
20260510090504 53 0 0.0 0.0 0.00 0.00 0.00 92 1012.2
20260510090404 53 0 0.0 0.0 0.00 0.00 0.00 92 1012.2
20260510090304 53 0 0.0 0.0 0.00 0.00 0.00 92 1012.2
20260510090104 53 0 0.0 0.0 0.00 0.00 0.00 92 1012.2
20260510090003 53 0 0.0 0.0 0.00 0.00 0.00 92 1012.2
20260510085904 53 0 0.0 0.0 0.00 0.00 0.00 92 1012.2
20260510085803 53 0 0.0 0.0 0.00 0.00 0.00 92 1012.2
20260510085703 53 0 0.0 0.0 0.00 0.00 0.00 92 1012.2
20260510085603 53 0 0.0 0.0 0.00 0.00 0.00 92 1012.2
20260510085504 53 0 0.0 0.0 0.00 0.00 0.00 92 1012.2
20260510085418 53 0 0.0 0.0 0.00 0.00 0.00 92 1012.2
20260510085306 53 0 0.0 0.0 0.00 0.00 0.00 92 1012.2
20260510085103 53 0 0.0 0.0 0.00 0.00 0.00 92 1012.1
20260510085003 53 0 0.0 0.0 0.00 0.00 0.00 92 1012.2
20260510084903 53 0 0.0 0.0 0.00 0.00 0.00 92 1012.2
20260510084803 53 0 0.0 0.0 0.00 0.00 0.00 92 1012.2
20260510084704 53 0 0.0 0.0 0.00 0.00 0.00 92 1012.2
20260510084603 53 0 0.0 0.0 0.00 0.00 0.00 92 1012.2
20260510084503 53 0 0.0 0.0 0.00 0.00 0.00 92 1012.2
20260510084404 53 0 0.0 0.0 0.00 0.00 0.00 92 1012.2
20260510084303 53 0 0.0 0.0 0.00 0.00 0.00 92 1012.2
20260510084204 53 0 0.0 0.0 0.00 0.00 0.00 92 1012.2
20260510084118 53 0 0.0 0.0 0.00 0.00 0.00 92 1012.2
20260510083804 53 0 0.0 0.0 0.00 0.00 0.00 92 1012.2
20260510083703 53 0 0.0 0.0 0.00 0.00 0.00 92 1012.2
20260510083603 53 0 0.0 0.0 0.00 0.00 0.00 92 1012.2
20260510083403 53 0 0.0 0.0 0.00 0.00 0.00 92 1012.0
20260510083303 53 0 0.0 0.0 0.00 0.00 0.00 92 1012.0
20260510083203 53 0 0.0 0.0 0.00 0.00 0.00 92 1012.0
20260510083003 53 0 0.0 0.0 0.00 0.00 0.00 92 1012.0
20260510082903 53 0 0.0 0.0 0.00 0.00 0.00 92 1012.0
20260510082803 53 0 0.0 0.0 0.00 0.00 0.00 92 1011.9
20260510082604 53 0 0.0 0.0 0.00 0.00 0.00 92 1011.8
20260510082503 53 0 0.0 0.0 0.00 0.00 0.00 92 1011.8
20260510082404 53 0 0.0 0.0 0.00 0.00 0.00 92 1011.8
20260510082203 53 0 0.0 0.0 0.00 0.00 0.00 92 1011.8
20260510082104 53 0 0.0 0.0 0.00 0.00 0.00 92 1011.8
20260510082004 53 0 0.0 0.0 0.00 0.00 0.00 92 1011.8
20260510081903 53 0 0.0 0.0 0.00 0.00 0.00 92 1011.7
20260510081703 53 0 0.0 0.0 0.00 0.00 0.00 92 1011.6
20260510081604 53 0 0.0 0.0 0.00 0.00 0.00 92 1011.6
20260510081503 53 0 0.0 0.0 0.00 0.00 0.00 92 1011.6
20260510081403 53 0 0.0 0.0 0.00 0.00 0.00 92 1011.5
20260510081304 53 0 0.0 0.0 0.00 0.00 0.00 92 1011.5
20260510081203 53 0 0.0 0.0 0.00 0.00 0.00 92 1011.5
20260510081103 53 0 0.0 0.0 0.00 0.00 0.00 92 1011.5
20260510081003 53 0 0.0 0.0 0.00 0.00 0.00 92 1011.5
20260510080903 53 0 0.0 0.0 0.00 0.00 0.00 92 1011.5
20260510080803 53 0 0.0 0.0 0.00 0.00 0.00 92 1011.4
20260510080704 53 0 0.0 0.0 0.00 0.00 0.00 92 1011.4
20260510080604 53 0 0.0 0.0 0.00 0.00 0.00 92 1011.5
20260510080504 53 0 0.0 0.0 0.00 0.00 0.00 92 1011.4
20260510080303 53 0 0.0 0.0 0.00 0.00 0.00 92 1011.5
20260510080203 53 0 0.0 0.0 0.00 0.00 0.00 92 1011.5
20260510080103 53 0 0.0 0.0 0.00 0.00 0.00 91 1011.5
20260510080003 53 0 0.0 0.0 0.00 0.00 0.00 91 1011.5
20260510075903 53 0 0.0 0.0 0.00 0.00 0.00 91 1011.5
20260510075803 53 0 0.0 0.0 0.00 0.00 0.00 92 1011.4
20260510075603 53 0 0.0 0.0 0.00 0.00 0.00 92 1011.4
20260510075504 53 0 0.0 0.0 0.00 0.00 0.00 92 1011.4
20260510075306 53 0 0.0 0.0 0.00 0.00 0.00 92 1011.4
20260510075203 53 0 0.0 0.0 0.00 0.00 0.00 92 1011.4
20260510075103 53 0 0.0 0.0 0.00 0.00 0.00 92 1011.4
20260510075004 53 0 0.0 0.0 0.00 0.00 0.00 92 1011.4
20260510074904 53 0 0.0 0.0 0.00 0.00 0.00 92 1011.4
20260510074803 53 0 0.0 0.0 0.00 0.00 0.00 91 1011.3
20260510074703 53 0 0.0 0.0 0.00 0.00 0.00 91 1011.3
20260510074603 53 0 0.0 0.0 0.00 0.00 0.00 91 1011.3
20260510074404 53 0 0.0 0.0 0.00 0.00 0.00 91 1011.3
20260510074304 53 0 0.0 0.0 0.00 0.00 0.00 91 1011.3
20260510074204 53 0 0.0 0.0 0.00 0.00 0.00 91 1011.3
20260510074103 53 0 0.0 0.0 0.00 0.00 0.00 91 1011.3
20260510074004 53 0 0.0 0.0 0.00 0.00 0.00 91 1011.2
20260510073904 53 0 0.0 0.0 0.00 0.00 0.00 91 1011.3
20260510073803 53 0 0.0 0.0 0.00 0.00 0.00 91 1011.3
20260510073704 53 0 0.0 0.0 0.00 0.00 0.00 91 1011.3
20260510073603 53 0 0.0 0.0 0.00 0.00 0.00 91 1011.3
20260510073503 53 0 0.0 0.0 0.00 0.00 0.00 91 1011.3
20260510073403 53 0 0.0 0.0 0.00 0.00 0.00 91 1011.3
20260510073303 53 0 0.0 0.0 0.00 0.00 0.00 91 1011.3
20260510073203 53 0 0.0 0.0 0.00 0.00 0.00 91 1011.2
20260510073103 53 0 0.0 0.0 0.00 0.00 0.00 91 1011.2
20260510073003 53 0 0.0 0.0 0.00 0.00 0.00 91 1011.2
20260510072903 53 0 0.0 0.0 0.00 0.00 0.00 91 1011.2
20260510072819 53 0 0.0 0.0 0.00 0.00 0.00 91 1011.2
20260510072704 53 0 0.0 0.0 0.00 0.00 0.00 91 1011.2
20260510072503 53 0 0.0 0.0 0.00 0.00 0.00 91 1011.2
20260510072404 53 0 0.0 0.0 0.00 0.00 0.00 91 1011.2
20260510072203 53 0 0.0 0.0 0.00 0.00 0.00 91 1011.2
20260510072103 53 0 0.0 0.0 0.00 0.00 0.00 91 1011.2
20260510072003 53 0 0.0 0.0 0.00 0.00 0.00 91 1011.2
20260510071903 53 0 0.0 0.0 0.00 0.00 0.00 91 1011.2
20260510071804 53 0 0.0 0.0 0.00 0.00 0.00 91 1011.2
20260510071703 53 0 0.0 0.0 0.00 0.00 0.00 91 1011.2
20260510071604 53 0 0.0 0.0 0.00 0.00 0.00 91 1011.1
20260510071503 53 0 0.0 0.0 0.00 0.00 0.00 91 1011.1
20260510071403 53 0 0.0 0.0 0.00 0.00 0.00 91 1011.1
20260510071303 53 0 0.0 0.0 0.00 0.00 0.00 91 1011.1
20260510071204 53 0 0.0 0.0 0.00 0.00 0.00 91 1011.2
20260510071003 53 0 0.0 0.0 0.00 0.00 0.00 91 1011.1
20260510070903 53 0 0.0 0.0 0.00 0.00 0.00 91 1011.2
20260510070803 53 0 0.0 0.0 0.00 0.00 0.00 91 1011.2
20260510070703 53 0 0.0 0.0 0.00 0.00 0.00 91 1011.3
20260510070603 53 0 0.0 0.0 0.00 0.00 0.00 91 1011.2
20260510070503 53 0 0.0 0.0 0.00 0.00 0.00 91 1011.2
20260510070403 53 0 0.0 0.0 0.00 0.00 0.00 91 1011.2
20260510070303 53 0 0.0 0.0 0.00 0.00 0.00 91 1011.2
20260510070203 53 0 0.0 0.0 0.00 0.00 0.00 91 1011.2
20260510070103 53 0 0.0 0.0 0.00 0.00 0.00 91 1011.2
20260510065903 53 0 0.0 0.0 0.00 0.00 0.00 91 1011.3
20260510065803 53 0 0.0 0.0 0.00 0.00 0.00 91 1011.2
20260510065703 53 0 0.0 0.0 0.00 0.00 0.00 91 1011.2
20260510065604 53 0 0.0 0.0 0.00 0.00 0.00 91 1011.2
20260510065503 53 0 0.0 0.0 0.00 0.00 0.00 91 1011.2
20260510065403 53 0 0.0 0.0 0.00 0.00 0.00 91 1011.1
20260510065306 53 0 0.0 0.0 0.00 0.00 0.00 91 1011.1
20260510065216 53 0 0.0 0.0 0.00 0.00 0.00 91 1011.1
20260510064903 53 0 0.0 0.0 0.00 0.00 0.00 91 1011.2
20260510064804 53 0 0.0 0.0 0.00 0.00 0.00 91 1011.2
20260510064703 53 0 0.0 0.0 0.00 0.00 0.00 91 1011.2
20260510064604 53 0 0.0 0.0 0.00 0.00 0.00 91 1011.2
20260510064503 53 0 0.0 0.0 0.00 0.00 0.00 91 1011.2
20260510064403 53 0 0.0 0.0 0.00 0.00 0.00 91 1011.2
20260510064303 53 0 0.0 0.0 0.00 0.00 0.00 91 1011.2
20260510064203 53 0 0.0 0.0 0.00 0.00 0.00 91 1011.2
20260510064003 54 0 0.0 0.0 0.00 0.00 0.00 90 1011.3
20260510063903 53 0 0.0 0.0 0.00 0.00 0.00 90 1011.3
20260510063803 53 0 0.0 0.0 0.00 0.00 0.00 90 1011.3
20260510063704 54 0 0.0 0.0 0.00 0.00 0.00 90 1011.3
20260510063603 53 0 0.0 0.0 0.00 0.00 0.00 90 1011.3
20260510063503 54 0 0.0 0.0 0.00 0.00 0.00 90 1011.3
20260510063404 54 0 0.0 0.0 0.00 0.00 0.00 90 1011.3
20260510063304 54 0 0.0 0.0 0.00 0.00 0.00 90 1011.3
20260510063004 54 0 0.0 0.0 0.00 0.00 0.00 90 1011.3
20260510062903 54 0 0.0 0.0 0.00 0.00 0.00 90 1011.3
20260510062804 54 0 0.0 0.0 0.00 0.00 0.00 90 1011.3
20260510062704 54 0 0.0 0.0 0.00 0.00 0.00 90 1011.3
20260510062604 54 0 0.0 0.0 0.00 0.00 0.00 90 1011.3
20260510062503 54 0 0.0 0.0 0.00 0.00 0.00 90 1011.3
20260510062403 54 0 0.0 0.0 0.00 0.00 0.00 90 1011.3
20260510062306 54 0 0.0 0.0 0.00 0.00 0.00 90 1011.3
20260510062204 54 0 0.0 0.0 0.00 0.00 0.00 90 1011.3
20260510062104 54 0 0.0 0.0 0.00 0.00 0.00 90 1011.3
20260510062003 54 0 0.0 0.0 0.00 0.00 0.00 90 1011.3
20260510061904 54 0 0.0 0.0 0.00 0.00 0.00 90 1011.3
20260510061803 54 0 0.0 0.0 0.00 0.00 0.00 90 1011.4
20260510061603 54 0 0.0 0.0 0.00 0.00 0.00 90 1011.3
20260510061503 54 0 0.0 0.0 0.00 0.00 0.00 90 1011.3
20260510061403 54 0 0.0 0.0 0.00 0.00 0.00 90 1011.3
20260510061304 54 0 0.0 0.0 0.00 0.00 0.00 90 1011.3
20260510061203 54 0 0.0 0.0 0.00 0.00 0.00 90 1011.3
20260510061103 54 0 0.0 0.0 0.00 0.00 0.00 90 1011.3
20260510061003 54 0 0.0 0.0 0.00 0.00 0.00 90 1011.3
20260510060803 54 0 0.0 0.0 0.00 0.00 0.00 90 1011.3
20260510060703 54 0 0.0 0.0 0.00 0.00 0.00 90 1011.4
20260510060603 54 0 0.0 0.0 0.00 0.00 0.00 90 1011.4
20260510060504 54 0 0.0 0.0 0.00 0.00 0.00 90 1011.4
20260510060403 54 0 0.0 0.0 0.00 0.00 0.00 90 1011.3
20260510060303 54 0 0.0 0.0 0.00 0.00 0.00 90 1011.3
20260510060203 54 0 0.0 0.0 0.00 0.00 0.00 90 1011.4
20260510060104 54 0 0.0 0.0 0.00 0.00 0.00 90 1011.4
20260510055903 54 0 0.0 0.0 0.00 0.00 0.00 90 1011.4
20260510055804 54 0 0.0 0.0 0.00 0.00 0.00 89 1011.4
20260510055704 54 0 0.0 0.0 0.00 0.00 0.00 89 1011.4
20260510055503 54 0 0.0 0.0 0.00 0.00 0.00 89 1011.4
20260510055403 54 0 0.0 0.0 0.00 0.00 0.00 89 1011.4
20260510055306 54 0 0.0 0.0 0.00 0.00 0.00 89 1011.4
20260510055203 54 0 0.0 0.0 0.00 0.00 0.00 89 1011.4
20260510055103 54 0 0.0 0.0 0.00 0.00 0.00 89 1011.4
20260510055003 54 0 0.0 0.0 0.00 0.00 0.00 89 1011.4
20260510054903 54 0 0.0 0.0 0.00 0.00 0.00 89 1011.4
20260510054803 54 0 0.0 0.0 0.00 0.00 0.00 89 1011.4
20260510054703 54 0 0.0 0.0 0.00 0.00 0.00 89 1011.5
20260510054603 54 0 0.0 0.0 0.00 0.00 0.00 89 1011.5
20260510054504 54 0 0.0 0.0 0.00 0.00 0.00 89 1011.5
20260510054404 54 0 0.0 0.0 0.00 0.00 0.00 89 1011.5
20260510054203 54 0 0.0 0.0 0.00 0.00 0.00 89 1011.4
20260510054103 54 0 0.0 0.0 0.00 0.00 0.00 89 1011.4
20260510054003 54 0 0.0 0.0 0.00 0.00 0.00 89 1011.4
20260510053904 54 0 0.0 0.0 0.00 0.00 0.00 89 1011.4
20260510053819 54 0 0.0 0.0 0.00 0.00 0.00 89 1011.4
20260510053804 54 0 0.0 0.0 0.00 0.00 0.00 89 1011.5
20260510053703 54 0 0.0 0.0 0.00 0.00 0.00 89 1011.5
20260510053504 54 0 0.0 0.0 0.00 0.00 0.00 89 1011.4
20260510053404 54 0 0.0 0.0 0.00 0.00 0.00 89 1011.4
20260510053303 54 0 0.0 0.0 0.00 0.00 0.00 89 1011.4
20260510053203 54 0 0.0 0.0 0.00 0.00 0.00 89 1011.4
20260510053103 54 0 0.0 0.0 0.00 0.00 0.00 88 1011.4
20260510053003 54 0 0.0 0.0 0.00 0.00 0.00 88 1011.4
20260510052903 54 0 0.0 0.0 0.00 0.00 0.00 88 1011.4
20260510052803 54 0 0.0 0.0 0.00 0.00 0.00 88 1011.4
20260510052703 54 0 0.0 0.0 0.00 0.00 0.00 88 1011.4
20260510052503 54 0 0.0 0.0 0.00 0.00 0.00 88 1011.5
20260510052404 54 0 0.0 0.0 0.00 0.00 0.00 88 1011.5
20260510052306 54 0 0.0 0.0 0.00 0.00 0.00 89 1011.4
20260510052203 54 0 0.0 0.0 0.00 0.00 0.00 88 1011.4
20260510052103 54 0 0.0 0.0 0.00 0.00 0.00 88 1011.4
20260510052003 54 0 0.0 0.0 0.00 0.00 0.00 88 1011.4
20260510051903 54 0 0.0 0.0 0.00 0.00 0.00 88 1011.4
20260510051804 54 0 0.0 0.0 0.00 0.00 0.00 88 1011.4
20260510051703 54 0 0.0 0.0 0.00 0.00 0.00 88 1011.4
20260510051603 54 0 0.0 0.0 0.00 0.00 0.00 88 1011.4
20260510051503 54 0 0.0 0.0 0.00 0.00 0.00 88 1011.4
20260510051303 54 0 0.0 0.0 0.00 0.00 0.00 88 1011.4
20260510051204 54 0 0.0 0.0 0.00 0.00 0.00 88 1011.4
20260510051104 54 0 0.0 0.0 0.00 0.00 0.00 88 1011.4
20260510051004 55 0 0.0 0.0 0.00 0.00 0.00 88 1011.4
20260510050804 55 0 0.0 0.0 0.00 0.00 0.00 88 1011.4
20260510050703 55 0 0.0 0.0 0.00 0.00 0.00 88 1011.4
20260510050604 55 0 0.0 0.0 0.00 0.00 0.00 88 1011.4
20260510050504 55 0 0.0 0.0 0.00 0.00 0.00 88 1011.4
20260510050403 55 0 0.0 0.0 0.00 0.00 0.00 87 1011.4
20260510050204 55 0 0.0 0.0 0.00 0.00 0.00 87 1011.4
20260510050104 55 0 0.0 0.0 0.00 0.00 0.00 87 1011.4
20260510050003 55 0 0.0 0.0 0.00 0.00 0.00 87 1011.4
20260510045903 55 0 0.0 0.0 0.00 0.00 0.00 87 1011.4
20260510045803 55 0 0.0 0.0 0.00 0.00 0.00 87 1011.4
20260510045603 55 0 0.0 0.0 0.00 0.00 0.00 87 1011.4
20260510045503 55 0 0.0 0.0 0.00 0.00 0.00 87 1011.4
20260510045403 55 0 0.0 0.0 0.00 0.00 0.00 87 1011.4
20260510045306 55 0 0.0 0.0 0.00 0.00 0.00 87 1011.3
20260510045103 55 0 0.0 0.0 0.00 0.00 0.00 87 1011.3
20260510045003 55 0 0.0 0.0 0.00 0.00 0.00 87 1011.3
20260510044903 55 0 0.0 0.0 0.00 0.00 0.00 87 1011.3
20260510044804 55 0 0.0 0.0 0.00 0.00 0.00 87 1011.3
20260510044704 55 0 0.0 0.0 0.00 0.00 0.00 87 1011.3
20260510044603 55 0 0.0 0.0 0.00 0.00 0.00 87 1011.3
20260510044503 55 0 0.0 0.0 0.00 0.00 0.00 87 1011.3
20260510044403 55 0 0.0 0.0 0.00 0.00 0.00 87 1011.3
20260510044303 55 0 0.0 0.0 0.00 0.00 0.00 87 1011.3
20260510044103 55 0 0.0 0.0 0.00 0.00 0.00 87 1011.3
20260510044003 55 0 0.0 0.0 0.00 0.00 0.00 87 1011.3
20260510043904 55 0 0.0 0.0 0.00 0.00 0.00 87 1011.3
20260510043804 55 0 0.0 0.0 0.00 0.00 0.00 87 1011.3
20260510043703 55 0 0.0 0.0 0.00 0.00 0.00 87 1011.3
20260510043604 55 0 0.0 0.0 0.00 0.00 0.00 87 1011.3
20260510043504 55 0 0.0 0.0 0.00 0.00 0.00 87 1011.3
20260510043304 55 0 0.0 0.0 0.00 0.00 0.00 87 1011.2
20260510043203 55 0 0.0 0.0 0.00 0.00 0.00 87 1011.2
20260510043103 55 0 0.0 0.0 0.00 0.00 0.00 87 1011.2
20260510043004 55 0 0.0 0.0 0.00 0.00 0.00 87 1011.1
20260510042908 55 0 0.0 0.0 0.00 0.00 0.00 87 1011.1
20260510042803 55 0 0.0 0.0 0.00 0.00 0.00 87 1011.1
20260510042704 55 0 0.0 0.0 0.00 0.00 0.00 87 1011.1
20260510042503 56 0 0.0 0.0 0.00 0.00 0.00 87 1011.1
20260510042403 56 0 0.0 0.0 0.00 0.00 0.00 87 1011.1
20260510042305 56 0 0.0 0.0 0.00 0.00 0.00 87 1011.1
20260510042203 56 0 0.0 0.0 0.00 0.00 0.00 87 1011.1
20260510042104 56 0 0.0 0.0 0.00 0.00 0.00 87 1011.1
20260510042003 56 0 0.0 0.0 0.00 0.00 0.00 87 1011.1
20260510041917 56 0 0.0 0.0 0.00 0.00 0.00 87 1011.1
20260510041804 56 0 0.0 0.0 0.00 0.00 0.00 87 1011.1
20260510041603 56 0 0.0 0.0 0.00 0.00 0.00 87 1011.1
20260510041503 56 0 0.0 0.0 0.00 0.00 0.00 87 1011.2
20260510041404 56 0 0.0 0.0 0.00 0.00 0.00 87 1011.2
20260510041303 56 0 0.0 0.0 0.00 0.00 0.00 87 1011.2
20260510041103 56 0 0.0 0.0 0.00 0.00 0.00 87 1011.2
20260510041003 56 0 0.0 0.0 0.00 0.00 0.00 87 1011.2
20260510040904 56 0 0.0 0.0 0.00 0.00 0.00 87 1011.2
20260510040804 56 0 0.0 0.0 0.00 0.00 0.00 87 1011.2
20260510040704 56 0 0.0 0.0 0.00 0.00 0.00 86 1011.2
20260510040603 56 0 0.0 0.0 0.00 0.00 0.00 86 1011.2
20260510040503 56 0 0.0 0.0 0.00 0.00 0.00 86 1011.3
20260510040404 56 0 0.0 0.0 0.00 0.00 0.00 86 1011.3
20260510040204 56 0 0.0 0.0 0.00 0.00 0.00 87 1011.2
20260510040003 56 0 0.0 0.0 0.00 0.00 0.00 87 1011.2
20260510035903 56 0 0.0 0.0 0.00 0.00 0.00 87 1011.2
20260510035804 56 0 0.0 0.0 0.00 0.00 0.00 87 1011.2
20260510035603 56 0 0.0 0.0 0.00 0.00 0.00 87 1011.2
20260510035504 56 0 0.0 0.0 0.00 0.00 0.00 87 1011.2
20260510035404 56 0 0.0 0.0 0.00 0.00 0.00 87 1011.2
20260510035306 56 0 0.0 0.0 0.00 0.00 0.00 87 1011.2
20260510035203 56 0 0.0 0.0 0.00 0.00 0.00 87 1011.1
20260510035103 56 0 0.0 0.0 0.00 0.00 0.00 87 1011.2
20260510034903 56 0 0.0 0.0 0.00 0.00 0.00 87 1011.2
20260510034803 56 0 0.0 0.0 0.00 0.00 0.00 87 1011.1
20260510034704 56 0 0.0 0.0 0.00 0.00 0.00 87 1011.1
20260510034604 56 0 0.0 0.0 0.00 0.00 0.00 87 1011.2
20260510034504 56 0 0.0 0.0 0.00 0.00 0.00 87 1011.2
20260510034404 56 0 0.0 0.0 0.00 0.00 0.00 87 1011.1
20260510034303 56 0 0.0 0.0 0.00 0.00 0.00 87 1011.2
20260510034204 56 0 0.0 0.0 0.00 0.00 0.00 87 1011.2
20260510034104 56 0 0.0 0.0 0.00 0.00 0.00 87 1011.2
20260510034003 56 0 0.0 0.0 0.00 0.00 0.00 87 1011.2
20260510033917 56 0 0.0 0.0 0.00 0.00 0.00 87 1011.2
20260510033804 56 0 0.0 0.0 0.00 0.00 0.00 87 1011.2
20260510033604 56 0 0.0 0.0 0.00 0.00 0.00 87 1011.1
20260510033504 56 0 0.0 0.0 0.00 0.00 0.00 87 1011.1
20260510033403 56 0 0.0 0.0 0.00 0.00 0.00 87 1011.2
20260510033303 56 0 0.0 0.0 0.00 0.00 0.00 87 1011.2
20260510033204 56 0 0.0 0.0 0.00 0.00 0.00 87 1011.2
20260510033003 56 0 0.0 0.0 0.00 0.00 0.00 87 1011.2
20260510032903 56 0 0.0 0.0 0.00 0.00 0.00 87 1011.2
20260510032804 56 0 0.0 0.0 0.00 0.00 0.00 87 1011.1
20260510032603 56 0 0.0 0.0 0.00 0.00 0.00 87 1011.1
20260510032503 56 0 0.0 0.0 0.00 0.00 0.00 87 1011.1
20260510032403 56 0 0.0 0.0 0.00 0.00 0.00 87 1011.1
20260510032306 56 0 0.0 0.0 0.00 0.00 0.00 87 1011.1
20260510032204 56 0 0.0 0.0 0.00 0.00 0.00 87 1011.1
20260510032103 56 0 0.0 0.0 0.00 0.00 0.00 87 1011.1
20260510032003 56 0 0.0 0.0 0.00 0.00 0.00 87 1011.1
20260510031803 56 0 0.0 0.0 0.00 0.00 0.00 87 1011.0
20260510031703 56 0 0.0 0.0 0.00 0.00 0.00 87 1011.0
20260510031604 56 0 0.0 0.0 0.00 0.00 0.00 88 1011.0
20260510031404 56 0 0.0 0.0 0.00 0.00 0.00 88 1011.0
20260510031304 56 0 0.0 0.0 0.00 0.00 0.00 88 1010.9
20260510031203 57 0 0.0 0.0 0.00 0.00 0.00 88 1011.0
20260510031103 57 0 0.0 0.0 0.00 0.00 0.00 88 1011.0
20260510031003 57 0 0.0 0.0 0.00 0.00 0.00 88 1010.9
20260510030903 57 0 0.0 0.0 0.00 0.00 0.00 87 1010.9
20260510030704 57 0 0.0 0.0 0.00 0.00 0.00 87 1010.9
20260510030603 57 0 0.0 0.0 0.00 0.00 0.00 87 1010.9
20260510030303 57 0 0.0 0.0 0.00 0.00 0.00 87 1010.9
20260510030204 57 0 0.0 0.0 0.00 0.00 0.00 87 1010.9
20260510030103 57 0 0.0 0.0 0.00 0.00 0.00 87 1010.9
20260510030003 57 0 0.0 0.0 0.00 0.00 0.00 87 1010.8
20260510025903 57 0 0.0 0.0 0.00 0.00 0.00 87 1010.8
20260510025817 57 0 0.0 0.0 0.00 0.00 0.00 86 1010.8
20260510025703 57 0 0.0 0.0 0.00 0.00 0.00 86 1010.8
20260510025617 57 0 0.0 0.0 0.00 0.00 0.00 86 1010.8
20260510025503 57 0 0.0 0.0 0.00 0.00 0.00 86 1010.7
20260510025306 57 0 0.0 0.0 0.00 0.00 0.00 86 1010.7
20260510025203 57 0 0.0 0.0 0.00 0.00 0.00 86 1010.7
20260510025104 57 0 0.0 0.0 0.00 0.00 0.00 86 1010.7
20260510025003 57 0 0.0 0.0 0.00 0.00 0.00 86 1010.7
20260510024804 57 0 0.0 0.0 0.00 0.00 0.00 85 1010.7
20260510024704 57 0 0.0 0.0 0.00 0.00 0.00 85 1010.7
20260510024603 57 0 0.0 0.0 0.00 0.00 0.00 86 1010.7
20260510024504 57 0 0.0 0.0 0.00 0.00 0.00 86 1010.6
20260510024303 58 0 0.0 0.0 0.00 0.00 0.00 86 1010.6
20260510024203 58 0 0.0 0.0 0.00 0.00 0.00 86 1010.6
20260510024003 58 0 0.0 0.0 0.00 0.00 0.00 86 1010.6
20260510023903 58 0 0.0 0.0 0.00 0.00 0.00 86 1010.5
20260510023803 58 0 0.0 0.0 0.00 0.00 0.00 86 1010.5
20260510023703 58 0 0.0 0.0 0.00 0.00 0.00 85 1010.5
20260510023603 58 0 0.0 0.0 0.00 0.00 0.00 85 1010.6
20260510023504 58 0 0.0 0.0 0.00 0.00 0.00 85 1010.6
20260510023403 58 0 0.0 0.0 0.00 0.00 0.00 85 1010.5
20260510023303 58 0 0.0 0.0 0.00 0.00 0.00 85 1010.5
20260510023103 58 0 0.0 0.0 0.00 0.00 0.00 85 1010.6
20260510023003 58 0 0.0 0.0 0.00 0.00 0.00 85 1010.6
20260510022804 58 0 0.0 0.0 0.00 0.00 0.00 84 1010.6
20260510022703 58 0 0.0 0.0 0.00 0.00 0.00 84 1010.5
20260510022603 58 0 0.0 0.0 0.00 0.00 0.00 84 1010.5
20260510022503 58 0 0.0 0.0 0.00 0.00 0.00 84 1010.5
20260510022318 59 0 0.0 0.0 0.00 0.00 0.00 84 1010.4
20260510022306 59 0 0.0 0.0 0.00 0.00 0.00 84 1010.5
20260510022203 59 0 0.0 0.0 0.00 0.00 0.00 84 1010.5
20260510022004 59 0 0.0 0.0 0.00 0.00 0.00 84 1010.4
20260510021903 59 0 0.0 0.0 0.00 0.00 0.00 84 1010.4
20260510021804 59 0 0.0 0.0 0.00 0.00 0.00 84 1010.4
20260510021703 59 0 0.0 0.0 0.00 0.00 0.00 84 1010.4
20260510021603 59 0 0.0 0.0 0.00 0.00 0.00 84 1010.4
20260510021504 59 0 0.0 0.0 0.00 0.00 0.00 84 1010.4
20260510021403 59 0 0.0 0.0 0.00 0.00 0.00 84 1010.4
20260510021303 59 0 0.0 0.0 0.00 0.00 0.00 84 1010.4
20260510021204 59 0 0.0 0.0 0.00 0.00 0.00 84 1010.4
20260510021104 59 0 0.0 0.0 0.00 0.00 0.00 84 1010.4
20260510021003 60 0 0.0 0.0 0.00 0.00 0.00 83 1010.3
20260510020904 60 0 0.0 0.0 0.00 0.00 0.00 83 1010.3
20260510020804 60 0 0.0 0.0 0.00 0.00 0.00 83 1010.3
20260510020703 60 0 0.0 0.0 0.00 0.00 0.00 83 1010.3
20260510020603 60 0 0.0 0.0 0.00 0.00 0.00 84 1010.3
20260510020403 60 0 0.0 0.0 0.00 0.00 0.00 84 1010.3
20260510020304 60 0 0.0 0.0 0.00 0.00 0.00 83 1010.2
20260510020203 60 0 0.0 0.0 0.00 0.00 0.00 83 1010.2
20260510020104 60 0 0.0 0.0 0.00 0.00 0.00 83 1010.2
20260510015903 60 0 0.0 0.0 0.00 0.00 0.00 83 1010.3
20260510015803 60 0 0.0 0.0 0.00 0.00 0.00 83 1010.2
20260510015703 60 0 0.0 0.0 0.00 0.00 0.00 83 1010.2
20260510015403 60 0 0.0 0.0 0.00 0.00 0.00 82 1010.1
20260510015306 60 0 0.0 0.0 0.00 0.00 0.00 82 1010.1
20260510015203 60 0 0.0 0.0 0.00 0.00 0.00 83 1010.1
20260510015104 60 0 0.0 0.0 0.00 0.00 0.00 83 1010.1
20260510015003 60 0 0.0 0.0 0.00 0.00 0.00 83 1010.0
20260510014903 60 0 0.0 0.0 0.00 0.00 0.00 82 1010.0
20260510014804 60 0 0.0 0.0 0.00 0.00 0.00 82 1010.0
20260510014703 60 227 0.0 1.0 0.00 0.00 0.00 82 1010.0
20260510014604 60 227 0.0 1.0 0.00 0.00 0.00 82 1010.0
20260510014503 61 227 0.0 1.0 0.00 0.00 0.00 82 1010.0
20260510014404 61 227 0.0 1.0 0.00 0.00 0.00 81 1010.0
20260510014303 61 227 0.0 1.0 0.00 0.00 0.00 81 1010.0
20260510014203 61 227 0.0 1.0 0.00 0.00 0.00 82 1010.0
20260510014103 61 227 0.0 1.0 0.00 0.00 0.00 82 1010.0
20260510014003 61 227 0.0 1.0 0.00 0.00 0.00 82 1009.9
20260510013904 61 227 0.0 1.0 0.00 0.00 0.00 82 1009.9
20260510013803 61 227 0.0 1.0 0.00 0.00 0.00 82 1009.9
20260510013704 61 0 0.0 0.0 0.00 0.00 0.00 83 1009.9
20260510013603 61 0 0.0 0.0 0.00 0.00 0.00 83 1009.9
20260510013504 61 0 0.0 0.0 0.00 0.00 0.00 82 1009.8
20260510013419 61 0 0.0 0.0 0.00 0.00 0.00 82 1009.8
20260510013403 61 0 0.0 0.0 0.00 0.00 0.00 82 1009.9
20260510013303 61 0 0.0 0.0 0.00 0.00 0.00 82 1009.9
20260510013103 62 0 0.0 0.0 0.00 0.00 0.00 81 1009.8
20260510013003 62 0 0.0 0.0 0.00 0.00 0.00 81 1009.8
20260510012903 62 0 0.0 0.0 0.00 0.00 0.00 81 1009.8
20260510012819 62 0 0.0 0.0 0.00 0.00 0.00 80 1009.8
20260510012703 62 0 0.0 0.0 0.00 0.00 0.00 81 1009.8
20260510012503 62 0 0.0 0.0 0.00 0.00 0.00 80 1009.7
20260510012404 62 0 0.0 0.0 0.00 0.00 0.00 80 1009.7
20260510012306 62 0 0.0 0.0 0.00 0.00 0.00 80 1009.7
20260510012203 62 0 0.0 0.0 0.00 0.00 0.00 80 1009.7
20260510012103 62 0 0.0 0.0 0.00 0.00 0.00 79 1009.7
20260510011903 62 0 0.0 0.0 0.00 0.00 0.00 79 1009.7
20260510011804 62 0 0.0 0.0 0.00 0.00 0.00 79 1009.7
20260510011703 62 0 0.0 0.0 0.00 0.00 0.00 78 1009.6
20260510011604 62 0 0.0 0.0 0.00 0.00 0.00 78 1009.6
20260510011503 63 0 0.0 0.0 0.00 0.00 0.00 78 1009.6
20260510011403 63 0 0.0 0.0 0.00 0.00 0.00 78 1009.5
20260510011303 63 0 0.0 0.0 0.00 0.00 0.00 78 1009.5
20260510011203 63 0 0.0 0.0 0.00 0.00 0.00 78 1009.5
20260510011103 63 0 0.0 0.0 0.00 0.00 0.00 78 1009.5
20260510010904 63 0 0.0 0.0 0.00 0.00 0.00 77 1009.5
20260510010803 63 0 0.0 0.0 0.00 0.00 0.00 77 1009.5
20260510010703 63 0 0.0 0.0 0.00 0.00 0.00 77 1009.4
20260510010503 63 0 0.0 0.0 0.00 0.00 0.00 76 1009.4
20260510010403 64 0 0.0 0.0 0.00 0.00 0.00 76 1009.4
20260510010303 64 0 0.0 0.0 0.00 0.00 0.00 76 1009.4
20260510010203 64 0 0.0 0.0 0.00 0.00 0.00 76 1009.4
20260510010004 64 0 0.0 0.0 0.00 0.00 0.00 75 1009.3
20260510005903 64 0 0.0 0.0 0.00 0.00 0.00 75 1009.3
20260510005704 64 0 0.0 0.0 0.00 0.00 0.00 75 1009.3
20260510005604 64 0 0.0 0.0 0.00 0.00 0.00 74 1009.3
20260510005504 64 0 0.0 0.0 0.00 0.00 0.00 74 1009.3
20260510005403 64 0 0.0 0.0 0.00 0.00 0.00 74 1009.4
20260510005204 64 0 0.0 0.0 0.00 0.00 0.00 74 1009.4
20260510005104 65 0 0.0 0.0 0.00 0.00 0.00 73 1009.4
20260510005003 65 0 0.0 0.0 0.00 0.00 0.00 73 1009.4
20260510004904 65 0 0.0 0.0 0.00 0.00 0.00 73 1009.3
20260510004804 65 0 0.0 0.0 0.00 0.00 0.00 72 1009.4
20260510004704 65 0 0.0 0.0 0.00 0.00 0.00 72 1009.4
20260510004504 65 0 0.0 0.0 0.00 0.00 0.00 72 1009.3
20260510004403 65 0 0.0 0.0 0.00 0.00 0.00 72 1009.3
20260510004304 66 0 0.0 0.0 0.00 0.00 0.00 72 1009.3
20260510004204 66 0 0.0 0.0 0.00 0.00 0.00 73 1009.3
20260510004104 66 0 0.0 0.0 0.00 0.00 0.00 71 1009.3
20260510004003 66 227 0.0 1.0 0.00 0.00 0.00 70 1009.4
20260510003903 66 227 0.0 1.0 0.00 0.00 0.00 70 1009.4
20260510003804 66 227 0.0 1.0 0.00 0.00 0.00 70 1009.3
20260510003703 66 227 0.0 1.0 0.00 0.00 0.00 70 1009.3
20260510003603 66 227 0.0 1.0 0.00 0.00 0.00 70 1009.3
20260510003503 66 227 0.0 1.0 0.00 0.00 0.00 70 1009.3
20260510003404 66 227 0.0 1.0 0.00 0.00 0.00 70 1009.3
20260510003304 67 227 0.0 1.0 0.00 0.00 0.00 70 1009.3
20260510003204 67 227 0.0 1.0 0.00 0.00 0.00 70 1009.3
20260510003103 67 227 0.0 1.0 0.00 0.00 0.00 69 1009.4
20260510003004 67 227 0.0 1.0 0.00 0.00 0.00 69 1009.3
20260510002903 67 227 0.0 1.0 0.00 0.00 0.00 69 1009.3
20260510002803 67 0 0.0 0.0 0.00 0.00 0.00 69 1009.3
20260510002719 67 0 0.0 0.0 0.00 0.00 0.00 69 1009.3
20260510002703 67 0 0.0 0.0 0.00 0.00 0.00 68 1009.2
20260510002603 67 0 0.0 0.0 0.00 0.00 0.00 69 1009.2
20260510002306 68 0 0.0 0.0 0.00 0.00 0.00 68 1009.1
20260510002203 68 0 0.0 0.0 0.00 0.00 0.00 68 1009.1
20260510002103 68 0 0.0 0.0 0.00 0.00 0.00 68 1009.1
20260510001903 68 0 0.0 0.0 0.00 0.00 0.00 68 1009.1
20260510001804 68 0 0.0 0.0 0.00 0.00 0.00 68 1009.0
20260510001703 68 0 0.0 0.0 0.00 0.00 0.00 67 1009.0
20260510001604 68 0 0.0 0.0 0.00 0.00 0.00 66 1009.0
20260510001503 68 0 0.0 0.0 0.00 0.00 0.00 66 1009.0
20260510001404 68 0 0.0 0.0 0.00 0.00 0.00 67 1009.0
20260510001303 69 0 0.0 0.0 0.00 0.00 0.00 67 1009.0
20260510001203 69 0 0.0 0.0 0.00 0.00 0.00 66 1009.1
20260510001103 69 0 0.0 0.0 0.00 0.00 0.00 66 1009.1
20260510000804 69 0 0.0 0.0 0.00 0.00 0.00 64 1009.1
20260510000704 69 0 0.0 0.0 0.00 0.00 0.00 65 1009.1
20260510000604 69 0 0.0 0.0 0.00 0.00 0.00 65 1009.1
20260510000504 69 0 0.0 0.0 0.00 0.00 0.00 65 1009.1
20260510000404 69 0 0.0 0.0 0.00 0.00 0.00 65 1009.0
20260510000304 69 0 0.0 0.0 0.00 0.00 0.00 65 1009.0
20260510000204 69 0 0.0 0.0 0.00 0.00 0.00 65 1009.0
20260510000104 70 0 0.0 0.0 0.00 0.00 0.00 65 1009.0
20260510000003 70 0 0.0 0.0 0.00 0.00 0.00 65 1009.0
20260509235903 70 0 0.0 0.0 0.00 0.00 0.00 65 1008.9
20260509235804 70 0 0.0 0.0 0.00 0.00 0.00 66 1008.9
20260509235703 70 0 0.0 0.0 0.00 0.00 0.00 65 1009.0
20260509235603 70 0 0.0 0.0 0.00 0.00 0.00 65 1009.0
20260509235403 70 0 0.0 0.0 0.00 0.00 0.00 65 1009.0
20260509235307 70 0 0.0 0.0 0.00 0.00 0.00 64 1009.0
20260509235103 70 0 0.0 0.0 0.00 0.00 0.00 64 1009.0
20260509235004 70 0 0.0 0.0 0.00 0.00 0.00 64 1009.0
20260509234904 70 0 0.0 0.0 0.00 0.00 0.00 63 1008.9
20260509234804 70 0 0.0 0.0 0.00 0.00 0.00 63 1008.9
20260509234704 70 0 0.0 0.0 0.00 0.00 0.00 63 1008.9
20260509234503 70 0 0.0 0.0 0.00 0.00 0.00 63 1008.9
20260509234403 70 0 0.0 0.0 0.00 0.00 0.00 63 1008.8
20260509234319 70 0 0.0 0.0 0.00 0.00 0.00 63 1008.8
20260509234303 70 0 0.0 0.0 0.00 0.00 0.00 63 1008.9
20260509234204 71 0 0.0 0.0 0.00 0.00 0.00 62 1008.9
20260509234003 71 0 0.0 0.0 0.00 0.00 0.00 62 1008.9
20260509233903 71 0 0.0 0.0 0.00 0.00 0.00 62 1008.8
20260509233803 71 0 0.0 0.0 0.00 0.00 0.00 61 1008.9
20260509233703 71 0 0.0 0.0 0.00 0.00 0.00 62 1008.9
20260509233603 71 0 0.0 0.0 0.00 0.00 0.00 61 1008.8
20260509233503 71 0 0.0 0.0 0.00 0.00 0.00 61 1008.8
20260509233404 72 0 0.0 0.0 0.00 0.00 0.00 61 1008.8
20260509233303 72 0 0.0 0.0 0.00 0.00 0.00 60 1008.8
20260509233218 72 0 0.0 0.0 0.00 0.00 0.00 60 1008.8
20260509232903 72 227 0.0 1.0 0.00 0.00 0.00 60 1008.8
20260509232804 72 227 0.0 1.0 0.00 0.00 0.00 60 1008.8
20260509232703 72 227 0.0 1.0 0.00 0.00 0.00 60 1008.8
20260509232603 72 227 0.0 1.0 0.00 0.00 0.00 60 1008.8
20260509232504 72 227 0.0 1.0 0.00 0.00 0.00 60 1008.8
20260509232404 72 227 0.0 1.0 0.00 0.00 0.00 60 1008.8
20260509232306 72 227 0.0 1.0 0.00 0.00 0.00 60 1008.8
20260509232204 72 227 0.0 1.0 0.00 0.00 0.00 60 1008.8
20260509232103 72 227 0.0 1.0 0.00 0.00 0.00 60 1008.7
20260509232003 72 227 0.0 1.0 0.00 0.00 0.00 60 1008.7
20260509231904 72 0 0.0 0.0 0.00 0.00 0.00 60 1008.7
20260509231804 72 0 0.0 0.0 0.00 0.00 0.00 60 1008.7
20260509231703 72 0 0.0 0.0 0.00 0.00 0.00 59 1008.7
20260509231604 72 0 0.0 0.0 0.00 0.00 0.00 59 1008.7
20260509231503 72 0 0.0 0.0 0.00 0.00 0.00 59 1008.8
20260509231403 72 0 0.0 0.0 0.00 0.00 0.00 59 1008.8
20260509231303 72 0 0.0 0.0 0.00 0.00 0.00 59 1008.8
20260509231204 73 0 0.0 0.0 0.00 0.00 0.00 58 1008.8
20260509231103 73 0 0.0 0.0 0.00 0.00 0.00 58 1008.8
20260509231003 73 0 0.0 0.0 0.00 0.00 0.00 57 1008.8
20260509230904 73 0 0.0 0.0 0.00 0.00 0.00 57 1008.8
20260509230804 73 0 0.0 0.0 0.00 0.00 0.00 57 1008.8
20260509230704 73 0 0.0 0.0 0.00 0.00 0.00 57 1008.8
20260509230604 73 0 0.0 0.0 0.00 0.00 0.00 57 1008.8
20260509230503 73 0 0.0 0.0 0.00 0.00 0.00 57 1008.8
20260509230403 73 0 0.0 0.0 0.00 0.00 0.00 57 1008.8
20260509230304 73 0 0.0 0.0 0.00 0.00 0.00 57 1008.8
20260509230203 73 227 0.0 1.0 0.00 0.00 0.00 57 1008.8
20260509230103 73 227 0.0 1.0 0.00 0.00 0.00 57 1008.8
20260509225903 74 227 0.0 1.0 0.00 0.00 0.00 56 1008.8
20260509225803 74 227 0.0 1.0 0.00 0.00 0.00 56 1008.8
20260509225703 74 227 0.0 1.0 0.00 0.00 0.00 56 1008.8
20260509225604 74 227 0.0 1.0 0.00 0.00 0.00 56 1008.8
20260509225504 74 227 0.0 1.0 0.00 0.00 0.00 55 1008.7
20260509225403 74 227 0.0 1.0 0.00 0.00 0.00 54 1008.7
20260509225305 74 227 0.0 1.0 0.00 0.00 0.00 54 1008.7
20260509225204 74 227 0.0 1.0 0.00 0.00 0.00 52 1008.8
20260509225104 74 227 0.0 1.0 0.00 0.00 0.00 52 1008.8
20260509225003 74 266 0.0 2.0 0.00 0.00 0.00 52 1008.8
20260509224903 74 273 0.0 2.0 0.00 0.00 0.00 55 1008.7
20260509224804 75 277 0.0 2.0 0.00 0.00 0.00 53 1008.7
20260509224703 75 285 0.0 3.0 0.00 0.00 0.00 51 1008.7
20260509224603 75 285 0.0 3.0 0.00 0.00 0.00 53 1008.7
20260509224503 75 285 0.0 3.0 0.00 0.00 0.00 53 1008.6
20260509224303 75 285 0.0 3.0 0.00 0.00 0.00 50 1008.7
20260509224203 75 287 0.0 3.0 0.00 0.00 0.00 49 1008.7
20260509224103 75 288 0.0 3.0 0.00 0.00 0.00 49 1008.7
20260509224005 75 298 0.0 3.0 0.00 0.00 0.00 53 1008.7
20260509223903 75 297 0.0 3.0 0.00 0.00 0.00 52 1008.7
20260509223716 75 291 0.0 2.0 0.00 0.00 0.00 53 1008.7
20260509223603 75 298 0.0 1.0 0.00 0.00 0.00 52 1008.6
20260509223517 75 298 0.0 2.0 0.00 0.00 0.00 51 1008.6
20260509223404 76 298 0.0 2.0 0.00 0.00 0.00 50 1008.6
20260509223317 76 298 1.0 3.0 0.00 0.00 0.00 50 1008.6
20260509223204 76 299 1.0 3.0 0.00 0.00 0.00 50 1008.6
20260509223005 76 300 1.0 3.0 0.00 0.00 0.00 50 1008.5
20260509222903 76 300 1.0 3.0 0.00 0.00 0.00 50 1008.6
20260509222803 76 301 1.0 3.0 0.00 0.00 0.00 52 1008.6
20260509222703 76 301 1.0 3.0 0.00 0.00 0.00 48 1008.7
20260509222603 76 301 1.0 3.0 0.00 0.00 0.00 47 1008.7
20260509222503 76 301 1.0 3.0 0.00 0.00 0.00 48 1008.7
20260509222403 76 302 1.0 3.0 0.00 0.00 0.00 47 1008.7
20260509222307 76 303 0.0 3.0 0.00 0.00 0.00 48 1008.7
20260509222203 76 305 1.0 3.0 0.00 0.00 0.00 50 1008.7
20260509222104 76 305 1.0 3.0 0.00 0.00 0.00 49 1008.6
20260509222003 76 305 1.0 3.0 0.00 0.00 0.00 50 1008.6
20260509221903 76 306 1.0 3.0 0.00 0.00 0.00 53 1008.6
20260509221804 76 311 1.0 4.0 0.00 0.00 0.00 51 1008.6
20260509221703 76 312 1.0 4.0 0.00 0.00 0.00 51 1008.6
20260509221604 76 315 1.0 4.0 0.00 0.00 0.00 51 1008.6
20260509221517 76 316 1.0 4.0 0.00 0.00 0.00 52 1008.6
20260509221504 76 317 1.0 4.0 0.00 0.00 0.00 52 1008.6
20260509221404 76 320 1.0 4.0 0.00 0.00 0.00 50 1008.5
20260509221317 76 321 1.0 4.0 0.00 0.00 0.00 51 1008.5
20260509221203 76 325 1.0 4.0 0.00 0.00 0.00 51 1008.5
20260509221004 76 328 1.0 4.0 0.00 0.00 0.00 48 1008.6
20260509220917 76 327 1.0 4.0 0.00 0.00 0.00 51 1008.6
20260509220903 76 328 1.0 4.0 0.00 0.00 0.00 51 1008.6
20260509220818 76 326 1.0 3.0 0.00 0.00 0.00 48 1008.6
20260509220803 76 326 1.0 3.0 0.00 0.00 0.00 48 1008.5
20260509220718 76 326 1.0 3.0 0.00 0.00 0.00 48 1008.5
20260509220619 76 324 1.0 3.0 0.00 0.00 0.00 49 1008.6
20260509220303 77 307 0.0 3.0 0.00 0.00 0.00 46 1008.5
20260509220204 76 297 0.0 3.0 0.00 0.00 0.00 48 1008.5
20260509220104 77 290 0.0 3.0 0.00 0.00 0.00 47 1008.5
20260509220003 77 288 0.0 3.0 0.00 0.00 0.00 51 1008.5
20260509215903 77 294 1.0 3.0 0.00 0.00 0.00 49 1008.5
20260509215804 77 299 1.0 6.0 0.00 0.00 0.00 51 1008.5
20260509215703 77 296 1.0 6.0 0.00 0.00 0.00 52 1008.5
20260509215603 77 295 1.0 6.0 0.00 0.00 0.00 51 1008.5
20260509215503 77 295 1.0 6.0 0.00 0.00 0.00 50 1008.5
20260509215418 76 295 1.0 6.0 0.00 0.00 0.00 48 1008.5
20260509215404 76 294 1.0 6.0 0.00 0.00 0.00 48 1008.5
20260509215317 76 293 1.0 6.0 0.00 0.00 0.00 47 1008.6
20260509215305 76 292 1.0 6.0 0.00 0.00 0.00 47 1008.6
20260509215118 77 283 1.0 6.0 0.00 0.00 0.00 47 1008.6
20260509215003 77 280 1.0 6.0 0.00 0.00 0.00 49 1008.6
20260509214919 77 275 1.0 6.0 0.00 0.00 0.00 49 1008.6
20260509214803 77 240 1.0 4.0 0.00 0.00 0.00 51 1008.5
20260509214617 76 224 1.0 4.0 0.00 0.00 0.00 51 1008.5
20260509214603 76 223 1.0 4.0 0.00 0.00 0.00 51 1008.5
20260509214503 76 224 1.0 4.0 0.00 0.00 0.00 51 1008.5
20260509214316 76 223 1.0 3.0 0.00 0.00 0.00 55 1008.4
20260509214304 76 224 1.0 3.0 0.00 0.00 0.00 54 1008.4
20260509214203 76 233 1.0 3.0 0.00 0.00 0.00 53 1008.4
20260509214004 76 241 1.0 3.0 0.00 0.00 0.00 52 1008.4
20260509213903 76 247 1.0 3.0 0.00 0.00 0.00 55 1008.4
20260509213803 77 267 1.0 5.0 0.00 0.00 0.00 48 1008.4
20260509213704 77 285 1.0 5.0 0.00 0.00 0.00 48 1008.4
20260509213603 77 302 1.0 5.0 0.00 0.00 0.00 49 1008.4
20260509213504 77 311 1.0 5.0 0.00 0.00 0.00 48 1008.4
20260509213405 77 321 1.0 5.0 0.00 0.00 0.00 49 1008.4
20260509213304 77 328 1.0 5.0 0.00 0.00 0.00 51 1008.3
20260509213203 77 332 1.0 5.0 0.00 0.00 0.00 49 1008.3
20260509213103 77 337 1.0 5.0 0.00 0.00 0.00 50 1008.3
20260509213003 77 346 2.0 5.0 0.00 0.00 0.00 50 1008.3
20260509212903 77 350 2.0 5.0 0.00 0.00 0.00 48 1008.3
20260509212804 77 354 2.0 5.0 0.00 0.00 0.00 50 1008.3
20260509212703 77 349 2.0 5.0 0.00 0.00 0.00 47 1008.3
20260509212603 77 346 2.0 5.0 0.00 0.00 0.00 51 1008.3
20260509212503 77 344 2.0 5.0 0.00 0.00 0.00 51 1008.3
20260509212403 77 341 2.0 5.0 0.00 0.00 0.00 49 1008.3
20260509212305 77 339 1.0 5.0 0.00 0.00 0.00 50 1008.3
20260509212203 77 339 1.0 5.0 0.00 0.00 0.00 50 1008.3
20260509212103 77 334 1.0 5.0 0.00 0.00 0.00 48 1008.3
20260509211903 78 296 1.0 3.0 0.00 0.00 0.00 48 1008.3
20260509211803 78 292 1.0 3.0 0.00 0.00 0.00 48 1008.3
20260509211703 78 290 1.0 3.0 0.00 0.00 0.00 51 1008.4
20260509211604 78 290 1.0 3.0 0.00 0.00 0.00 51 1008.4
20260509211503 77 290 1.0 3.0 0.00 0.00 0.00 50 1008.4
20260509211304 77 284 1.0 3.0 0.00 0.00 0.00 51 1008.4
20260509211203 77 280 1.0 3.0 0.00 0.00 0.00 50 1008.4
20260509211103 77 272 1.0 3.0 0.00 0.00 0.00 50 1008.4
20260509210917 77 248 1.0 3.0 0.00 0.00 0.00 50 1008.4
20260509210903 77 243 1.0 3.0 0.00 0.00 0.00 49 1008.4
20260509210804 77 244 1.0 3.0 0.00 0.00 0.00 48 1008.4
20260509210603 77 242 1.0 3.0 0.00 0.00 0.00 48 1008.4
20260509210504 77 252 1.0 4.0 0.00 0.00 0.00 49 1008.4
20260509210418 77 247 1.0 4.0 0.00 0.00 0.00 49 1008.4
20260509210403 77 253 1.0 4.0 0.00 0.00 0.00 49 1008.4
20260509210303 78 306 1.0 4.0 0.00 0.00 0.00 48 1008.4
20260509210003 78 339 1.0 4.0 0.00 0.00 0.00 48 1008.3
20260509205917 78 343 1.0 4.0 0.00 0.00 0.00 54 1008.4
20260509205904 78 345 1.0 4.0 0.00 0.00 0.00 54 1008.4
20260509205804 78 348 1.0 4.0 0.00 0.00 0.00 53 1008.4
20260509205718 78 349 1.0 4.0 0.00 0.00 0.00 53 1008.4
20260509205604 77 353 1.0 4.0 0.00 0.00 0.00 53 1008.4
20260509205403 77 357 1.0 2.0 0.00 0.00 0.00 54 1008.4
20260509205307 77 357 1.0 2.0 0.00 0.00 0.00 51 1008.4
20260509205203 77 357 1.0 2.0 0.00 0.00 0.00 52 1008.4
20260509205103 77 357 1.0 2.0 0.00 0.00 0.00 55 1008.4
20260509205003 76 357 0.0 2.0 0.00 0.00 0.00 53 1008.4
20260509204904 76 357 0.0 2.0 0.00 0.00 0.00 51 1008.3
20260509204804 77 357 0.0 2.0 0.00 0.00 0.00 53 1008.4
20260509204703 77 357 0.0 2.0 0.00 0.00 0.00 52 1008.4
20260509204603 77 357 1.0 2.0 0.00 0.00 0.00 54 1008.3
20260509204504 77 356 1.0 3.0 0.00 0.00 0.00 54 1008.3
20260509204404 77 355 1.0 3.0 0.00 0.00 0.00 52 1008.3
20260509204303 77 351 1.0 3.0 0.00 0.00 0.00 54 1008.2
20260509204203 77 338 1.0 4.0 0.00 0.00 0.00 53 1008.2
20260509204104 77 339 1.0 4.0 0.00 0.00 0.00 53 1008.2
20260509204003 77 340 1.0 4.0 0.00 0.00 0.00 54 1008.3
20260509203903 77 343 1.0 4.0 0.00 0.00 0.00 52 1008.3
20260509203803 77 339 1.0 4.0 0.00 0.00 0.00 53 1008.3
20260509203703 78 340 1.0 4.0 0.00 0.00 0.00 53 1008.3
20260509203603 78 339 1.0 4.0 0.00 0.00 0.00 53 1008.4
20260509203504 78 335 1.0 4.0 0.00 0.00 0.00 53 1008.4
20260509203403 78 335 1.0 4.0 0.00 0.00 0.00 52 1008.4
20260509203303 78 336 1.0 4.0 0.00 0.00 0.00 52 1008.4
20260509203217 78 340 1.0 4.0 0.00 0.00 0.00 54 1008.4
20260509203203 78 342 1.0 4.0 0.00 0.00 0.00 54 1008.4
20260509203103 78 341 1.0 4.0 0.00 0.00 0.00 56 1008.4
20260509202918 77 339 1.0 4.0 0.00 0.00 0.00 53 1008.5
20260509202803 77 347 1.0 4.0 0.00 0.00 0.00 54 1008.4
20260509202618 78 344 1.0 4.0 0.00 0.00 0.00 52 1008.5
20260509202603 78 343 1.0 4.0 0.00 0.00 0.00 52 1008.5
20260509202503 78 334 2.0 7.0 0.00 0.00 0.00 53 1008.5
20260509202306 78 328 2.0 7.0 0.00 0.00 0.00 54 1008.5
20260509202204 77 328 2.0 7.0 0.00 0.00 0.00 55 1008.4
20260509202104 77 325 2.0 7.0 0.00 0.00 0.00 56 1008.4
20260509202004 77 311 2.0 7.0 0.00 0.00 0.00 53 1008.5
20260509201916 77 305 2.0 7.0 0.00 0.00 0.00 52 1008.5
20260509201903 77 301 2.0 7.0 0.00 0.00 0.00 52 1008.5
20260509201804 77 287 2.0 7.0 0.00 0.00 0.00 51 1008.5
20260509201604 77 269 2.0 7.0 0.00 0.00 0.00 50 1008.6
20260509201503 78 262 2.0 6.0 0.00 0.00 0.00 50 1008.6
20260509201404 78 265 2.0 6.0 0.00 0.00 0.00 53 1008.6
20260509201303 78 277 2.0 7.0 0.00 0.00 0.00 52 1008.6
20260509201203 78 278 2.0 7.0 0.00 0.00 0.00 52 1008.6
20260509201103 78 283 2.0 7.0 0.00 0.00 0.00 53 1008.6
20260509200904 78 301 2.0 7.0 0.00 0.00 0.00 52 1008.6
20260509200804 79 306 1.0 7.0 0.00 0.00 0.00 52 1008.6
20260509200718 79 310 1.0 7.0 0.00 0.00 0.00 52 1008.5
20260509200703 79 312 1.0 7.0 0.00 0.00 0.00 52 1008.5
20260509200603 78 317 1.0 7.0 0.00 0.00 0.00 53 1008.5
20260509200404 78 318 1.0 7.0 0.00 0.00 0.00 53 1008.6
20260509200303 77 305 1.0 5.0 0.00 0.00 0.00 53 1008.6
20260509200204 77 279 1.0 3.0 0.00 0.00 0.00 55 1008.6
20260509200117 77 273 1.0 3.0 0.00 0.00 0.00 59 1008.6
20260509200103 77 271 1.0 3.0 0.00 0.00 0.00 59 1008.6
20260509200018 77 272 1.0 3.0 0.00 0.00 0.00 58 1008.6
20260509200004 77 270 1.0 3.0 0.00 0.00 0.00 58 1008.6
20260509195717 78 279 1.0 5.0 0.00 0.00 0.00 55 1008.7
20260509195703 77 283 1.0 5.0 0.00 0.00 0.00 55 1008.7
20260509195604 77 275 1.0 5.0 0.00 0.00 0.00 56 1008.7
20260509195417 77 306 1.0 5.0 0.00 0.00 0.00 56 1008.7
20260509195404 77 310 1.0 5.0 0.00 0.00 0.00 56 1008.7
20260509195318 77 325 1.0 5.0 0.00 0.00 0.00 56 1008.7
20260509195306 77 326 1.0 5.0 0.00 0.00 0.00 55 1008.7
20260509195003 78 348 1.0 5.0 0.00 0.00 0.00 53 1008.9
20260509194903 78 2 1.0 5.0 0.00 0.00 0.00 55 1009.0
20260509194803 78 26 1.0 4.0 0.00 0.00 0.00 61 1009.0
20260509194704 78 48 1.0 4.0 0.00 0.00 0.00 58 1008.9
20260509194603 78 60 1.0 4.0 0.00 0.00 0.00 56 1008.9
20260509194503 78 85 1.0 4.0 0.00 0.00 0.00 57 1008.9
20260509194403 78 103 1.0 4.0 0.00 0.00 0.00 61 1008.9
20260509194303 78 112 1.0 3.0 0.00 0.00 0.00 58 1008.9
20260509194204 78 119 1.0 3.0 0.00 0.00 0.00 59 1008.9
20260509194003 77 118 1.0 3.0 0.00 0.00 0.00 58 1008.9
20260509193904 76 108 1.0 3.0 0.00 0.00 0.00 59 1008.9
20260509193803 76 98 1.0 3.0 0.00 0.00 0.00 58 1008.9
20260509193703 76 82 1.0 2.0 0.00 0.00 0.00 61 1008.9
20260509193603 75 74 1.0 2.0 0.00 0.00 0.00 61 1008.9
20260509193503 75 62 1.0 2.0 0.00 0.00 0.00 61 1008.9
20260509193403 75 55 1.0 2.0 0.00 0.00 0.00 59 1008.9
20260509193318 75 52 1.0 2.0 0.00 0.00 0.00 63 1008.9
20260509193304 75 53 1.0 2.0 0.00 0.00 0.00 63 1008.9
20260509193203 75 61 1.0 2.0 0.00 0.00 0.00 62 1008.9
20260509193017 76 86 1.0 2.0 0.00 0.00 0.00 57 1009.0
20260509193003 76 88 1.0 2.0 0.00 0.00 0.00 57 1009.0
20260509192918 76 91 1.0 2.0 0.00 0.00 0.00 58 1008.9
20260509192904 76 93 1.0 2.0 0.00 0.00 0.00 60 1008.9
20260509192603 76 65 1.0 4.0 0.00 0.00 0.00 59 1008.9
20260509192504 76 46 1.0 4.0 0.00 0.00 0.00 60 1008.9
20260509192403 76 83 1.0 4.0 0.00 0.00 0.00 60 1008.9
20260509192306 76 47 1.0 4.0 0.00 0.00 0.00 62 1008.9
20260509192218 76 355 1.0 4.0 0.00 0.00 0.00 57 1008.9
20260509192203 76 351 1.0 4.0 0.00 0.00 0.00 57 1008.9
20260509192103 77 342 1.0 4.0 0.00 0.00 0.00 57 1009.0
20260509191904 77 340 1.0 4.0 0.00 0.00 0.00 58 1008.9
20260509191803 77 335 1.0 4.0 0.00 0.00 0.00 56 1008.9
20260509191703 77 336 1.0 4.0 0.00 0.00 0.00 59 1008.9
20260509191603 77 337 1.0 3.0 0.00 0.00 0.00 57 1009.0
20260509191503 77 335 1.0 3.0 0.00 0.00 0.00 57 1009.0
20260509191404 77 334 1.0 3.0 0.00 0.00 0.00 61 1009.0
20260509191303 77 329 1.0 3.0 0.00 0.00 0.00 62 1009.0
20260509191218 77 330 1.0 3.0 0.00 0.00 0.00 59 1009.0
20260509191203 77 331 1.0 3.0 0.00 0.00 0.00 59 1009.0
20260509191103 77 330 1.0 3.0 0.00 0.00 0.00 57 1009.0
20260509191017 77 328 1.0 3.0 0.00 0.00 0.00 56 1009.0
20260509190903 77 331 1.0 3.0 0.00 0.00 0.00 59 1009.0
20260509190703 77 330 1.0 3.0 0.00 0.00 0.00 56 1009.0
20260509190603 77 318 1.0 3.0 0.00 0.00 0.00 57 1009.0
20260509190516 77 313 1.0 3.0 0.00 0.00 0.00 57 1009.0
20260509190503 77 311 1.0 3.0 0.00 0.00 0.00 60 1009.0
20260509190404 77 311 1.0 4.0 0.00 0.00 0.00 61 1009.0
20260509190203 76 310 1.0 4.0 0.00 0.00 0.00 58 1009.1
20260509190019 76 300 1.0 4.0 0.00 0.00 0.00 60 1009.1
20260509190003 76 294 1.0 4.0 0.00 0.00 0.00 60 1009.1
20260509185905 75 264 1.0 4.0 0.00 0.00 0.00 62 1009.1
20260509185704 75 273 1.0 5.0 0.00 0.00 0.00 62 1009.0
20260509185604 75 277 1.0 5.0 0.00 0.00 0.00 62 1009.0
20260509185503 75 285 1.0 5.0 0.00 0.00 0.00 63 1009.0
20260509185404 75 269 1.0 5.0 0.00 0.00 0.00 61 1009.0
20260509185306 75 264 1.0 5.0 0.00 0.00 0.00 58 1009.0
20260509185218 75 262 1.0 5.0 0.00 0.00 0.00 57 1009.0
20260509185203 75 262 1.0 5.0 0.00 0.00 0.00 57 1009.1
20260509185103 76 254 1.0 5.0 0.00 0.00 0.00 61 1009.1
20260509184904 76 288 1.0 5.0 0.00 0.00 0.00 59 1009.0
20260509184804 76 294 1.0 5.0 0.00 0.00 0.00 60 1009.0
20260509184719 76 300 1.0 4.0 0.00 0.00 0.00 60 1009.0
20260509184703 76 298 1.0 4.0 0.00 0.00 0.00 61 1009.0
20260509184603 76 284 1.0 3.0 0.00 0.00 0.00 60 1009.0
20260509184404 76 263 1.0 3.0 0.00 0.00 0.00 60 1008.9
20260509184303 77 262 1.0 3.0 0.00 0.00 0.00 59 1008.9
20260509184103 76 287 1.0 4.0 0.00 0.00 0.00 59 1008.9
20260509184003 76 297 1.0 4.0 0.00 0.00 0.00 59 1008.9
20260509183904 76 303 1.0 4.0 0.00 0.00 0.00 59 1008.9
20260509183803 77 306 1.0 4.0 0.00 0.00 0.00 58 1008.9
20260509183719 77 313 1.0 4.0 0.00 0.00 0.00 57 1008.9
20260509183704 77 316 1.0 4.0 0.00 0.00 0.00 63 1008.9
20260509183603 77 325 1.0 4.0 0.00 0.00 0.00 61 1008.9
20260509183403 77 348 1.0 4.0 0.00 0.00 0.00 62 1008.9
20260509183304 77 6 1.0 4.0 0.00 0.00 0.00 58 1008.9
20260509183203 77 64 1.0 3.0 0.00 0.00 0.00 62 1008.9
20260509183103 76 79 1.0 3.0 0.00 0.00 0.00 62 1008.9
20260509183003 76 101 1.0 3.0 0.00 0.00 0.00 63 1008.9
20260509182903 76 107 1.0 3.0 0.00 0.00 0.00 65 1008.9
20260509182803 75 109 1.0 3.0 0.00 0.00 0.00 67 1008.9
20260509182703 75 106 1.0 3.0 0.00 0.00 0.00 63 1008.9
20260509182603 75 94 1.0 3.0 0.00 0.00 0.00 64 1008.9
20260509182503 74 93 1.0 3.0 0.00 0.00 0.00 62 1008.9
20260509182403 74 83 1.0 3.0 0.00 0.00 0.00 63 1008.8
20260509182306 75 80 1.0 3.0 0.00 0.00 0.00 61 1008.8
20260509182218 75 40 1.0 3.0 0.00 0.00 0.00 61 1008.9
20260509182203 75 19 1.0 3.0 0.00 0.00 0.00 61 1008.9
20260509182103 75 294 1.0 3.0 0.00 0.00 0.00 62 1008.8
20260509181903 75 292 2.0 6.0 0.00 0.00 0.00 62 1008.8
20260509181803 75 297 1.0 7.0 0.00 0.00 0.00 60 1008.8
20260509181704 76 296 1.0 7.0 0.00 0.00 0.00 59 1008.7
20260509181617 76 294 1.0 7.0 0.00 0.00 0.00 62 1008.7
20260509181604 76 291 1.0 7.0 0.00 0.00 0.00 62 1008.7
20260509181518 75 288 1.0 7.0 0.00 0.00 0.00 60 1008.7
20260509181504 75 287 1.0 7.0 0.00 0.00 0.00 60 1008.7
20260509181204 76 305 1.0 7.0 0.00 0.00 0.00 61 1008.7
20260509181103 76 314 1.0 7.0 0.00 0.00 0.00 61 1008.6
20260509181004 76 320 1.0 7.0 0.00 0.00 0.00 59 1008.6
20260509180917 76 326 1.0 7.0 0.00 0.00 0.00 62 1008.7
20260509180903 76 329 1.0 7.0 0.00 0.00 0.00 62 1008.7
20260509180804 76 353 1.0 3.0 0.00 0.00 0.00 62 1008.7
20260509180503 76 357 1.0 3.0 0.00 0.00 0.00 59 1008.7
20260509180403 76 359 1.0 3.0 0.00 0.00 0.00 60 1008.7
20260509180303 76 354 1.0 3.0 0.00 0.00 0.00 61 1008.7
20260509180204 76 344 1.0 4.0 0.00 0.00 0.00 59 1008.7
20260509180118 76 338 1.0 4.0 0.00 0.00 0.00 61 1008.6
20260509180003 76 327 1.0 4.0 0.00 0.00 0.00 64 1008.6
20260509175803 75 308 1.0 4.0 0.00 0.00 0.00 63 1008.6
20260509175703 75 304 1.0 4.0 0.00 0.00 0.00 59 1008.6
20260509175604 75 306 2.0 4.0 0.00 0.00 0.00 59 1008.6
20260509175503 75 307 2.0 4.0 0.00 0.00 0.00 60 1008.7
20260509175403 76 303 2.0 4.0 0.00 0.00 0.00 61 1008.7
20260509175306 76 302 2.0 5.0 0.00 0.00 0.00 61 1008.7
20260509175218 76 302 2.0 5.0 0.00 0.00 0.00 61 1008.7
20260509175203 75 301 2.0 5.0 0.00 0.00 0.00 61 1008.7
20260509175118 75 307 2.0 5.0 0.00 0.00 0.00 62 1008.7
20260509175103 75 309 2.0 5.0 0.00 0.00 0.00 62 1008.7
20260509174804 74 320 1.0 5.0 0.00 0.00 0.00 61 1008.7
20260509174704 75 325 1.0 5.0 0.00 0.00 0.00 62 1008.7
20260509174604 75 319 2.0 5.0 0.00 0.00 0.00 64 1008.7
20260509174503 75 319 2.0 5.0 0.00 0.00 0.00 61 1008.7
20260509174403 75 319 1.0 5.0 0.00 0.00 0.00 60 1008.7
20260509174303 75 321 1.0 5.0 0.00 0.00 0.00 60 1008.7
20260509174203 76 311 1.0 5.0 0.00 0.00 0.00 60 1008.7
20260509174104 76 296 1.0 5.0 0.00 0.00 0.00 60 1008.6
20260509174004 76 298 2.0 5.0 0.00 0.00 0.00 59 1008.6
20260509173903 76 306 2.0 5.0 0.00 0.00 0.00 59 1008.6
20260509173803 77 317 2.0 5.0 0.00 0.00 0.00 57 1008.7
20260509173604 77 325 1.0 4.0 0.00 0.00 0.00 61 1008.7
20260509173503 76 349 2.0 4.0 0.00 0.00 0.00 60 1008.6
20260509173418 76 46 1.0 4.0 0.00 0.00 0.00 62 1008.6
20260509173403 76 55 1.0 4.0 0.00 0.00 0.00 62 1008.6
20260509173303 76 33 2.0 4.0 0.00 0.00 0.00 61 1008.6
20260509173103 76 32 1.0 4.0 0.00 0.00 0.00 60 1008.7
20260509173003 76 28 1.0 4.0 0.00 0.00 0.00 62 1008.7
20260509172903 76 358 1.0 3.0 0.00 0.00 0.00 61 1008.7
20260509172804 76 316 1.0 3.0 0.00 0.00 0.00 64 1008.7
20260509172703 76 313 1.0 3.0 0.00 0.00 0.00 63 1008.7
20260509172603 76 315 1.0 3.0 0.00 0.00 0.00 62 1008.7
20260509172504 76 321 1.0 3.0 0.00 0.00 0.00 63 1008.7
20260509172403 76 323 1.0 3.0 0.00 0.00 0.00 62 1008.7
20260509172306 76 327 1.0 3.0 0.00 0.00 0.00 61 1008.7
20260509172203 76 327 1.0 3.0 0.00 0.00 0.00 62 1008.8
20260509172103 76 324 1.0 3.0 0.00 0.00 0.00 61 1008.8
20260509172017 76 323 1.0 4.0 0.00 0.00 0.00 62 1008.8
20260509172003 76 324 1.0 4.0 0.00 0.00 0.00 63 1008.8
20260509171904 76 330 1.0 4.0 0.00 0.00 0.00 63 1008.9
20260509171703 76 327 1.0 4.0 0.00 0.00 0.00 63 1008.9
20260509171604 76 328 1.0 4.0 0.00 0.00 0.00 63 1008.9
20260509171503 76 326 1.0 4.0 0.00 0.00 0.00 64 1009.0
20260509171403 76 316 1.0 4.0 0.00 0.00 0.00 63 1009.0
20260509171303 76 298 1.0 4.0 0.00 0.00 0.00 64 1009.0
20260509171203 76 294 1.0 4.0 0.00 0.00 0.00 63 1009.0
20260509171103 76 282 0.0 4.0 0.00 0.00 0.00 64 1009.0
20260509171003 76 231 1.0 2.0 0.00 0.00 0.00 67 1009.0
20260509170903 76 224 1.0 2.0 0.00 0.00 0.00 66 1009.0
20260509170803 76 223 1.0 2.0 0.00 0.00 0.00 65 1009.0
20260509170703 75 218 1.0 2.0 0.00 0.00 0.00 64 1009.0
20260509170603 75 212 1.0 2.0 0.00 0.00 0.00 64 1009.0
20260509170504 75 200 1.0 3.0 0.00 0.00 0.00 67 1009.0
20260509170403 75 199 1.0 3.0 0.00 0.00 0.00 66 1009.1
20260509170303 75 199 1.0 3.0 0.00 0.00 0.00 64 1009.1
20260509170203 75 199 1.0 3.0 0.00 0.00 0.00 63 1009.1
20260509170104 75 199 1.0 3.0 0.00 0.00 0.00 63 1009.1
20260509170004 75 199 1.0 3.0 0.00 0.00 0.00 65 1009.1
20260509165803 75 199 1.0 3.0 0.00 0.00 0.00 65 1009.2
20260509165703 75 199 1.0 3.0 0.00 0.00 0.00 65 1009.2
20260509165604 75 199 1.0 3.0 0.00 0.00 0.00 65 1009.2
20260509165519 75 201 1.0 3.0 0.00 0.00 0.00 66 1009.2
20260509165503 74 202 1.0 3.0 0.00 0.00 0.00 66 1009.2
20260509165403 74 209 1.0 3.0 0.00 0.00 0.00 65 1009.2
20260509165317 74 214 1.0 3.0 0.00 0.00 0.00 65 1009.2
20260509165219 74 215 1.0 3.0 0.00 0.00 0.00 66 1009.3
20260509165204 74 216 1.0 3.0 0.00 0.00 0.00 66 1009.3
20260509164904 74 261 1.0 5.0 0.00 0.00 0.00 64 1009.3
20260509164803 74 257 1.0 5.0 0.00 0.00 0.00 65 1009.3
20260509164703 74 256 2.0 5.0 0.00 0.00 0.00 65 1009.3
20260509164604 74 249 1.0 5.0 0.00 0.00 0.00 65 1009.3
20260509164504 74 249 1.0 5.0 0.00 0.00 0.00 64 1009.3
20260509164403 74 217 1.0 5.0 0.00 0.00 0.00 66 1009.4
20260509164303 74 190 1.0 5.0 0.00 0.00 0.00 65 1009.3
20260509164204 74 178 2.0 5.0 0.00 0.00 0.00 65 1009.3
20260509164104 74 170 2.0 5.0 0.00 0.00 0.00 64 1009.3
20260509164003 74 161 1.0 5.0 0.00 0.00 0.00 64 1009.3
20260509163917 74 153 1.0 5.0 0.00 0.00 0.00 64 1009.3
20260509163904 74 151 1.0 3.0 0.00 0.00 0.00 66 1009.3
20260509163804 74 152 1.0 3.0 0.00 0.00 0.00 65 1009.3
20260509163505 74 153 1.0 3.0 0.00 0.00 0.00 65 1009.4
20260509163418 74 156 1.0 3.0 0.00 0.00 0.00 67 1009.4
20260509163404 74 157 1.0 3.0 0.00 0.00 0.00 67 1009.4
20260509163319 74 160 1.0 3.0 0.00 0.00 0.00 68 1009.4
20260509163304 74 161 1.0 3.0 0.00 0.00 0.00 68 1009.4
20260509163004 73 194 1.0 3.0 0.00 0.00 0.00 68 1009.4
20260509162903 73 232 1.0 3.0 0.00 0.00 0.00 68 1009.4
20260509162803 73 259 1.0 3.0 0.00 0.00 0.00 67 1009.4
20260509162703 73 283 1.0 4.0 0.00 0.00 0.00 67 1009.4
20260509162603 73 301 1.0 4.0 0.00 0.00 0.00 67 1009.4
20260509162517 73 301 1.0 4.0 0.00 0.00 0.00 68 1009.4
20260509162503 73 302 1.0 4.0 0.00 0.00 0.00 68 1009.4
20260509162403 73 301 1.0 4.0 0.00 0.00 0.00 67 1009.4
20260509162204 73 299 2.0 4.0 0.00 0.00 0.00 66 1009.4
20260509162104 73 298 2.0 4.0 0.00 0.00 0.00 67 1009.4
20260509162018 73 295 2.0 4.0 0.00 0.00 0.00 67 1009.4
20260509162003 73 294 2.0 4.0 0.00 0.00 0.00 67 1009.4
20260509161903 73 294 2.0 4.0 0.00 0.00 0.00 66 1009.4
20260509161818 73 294 1.0 4.0 0.00 0.00 0.00 65 1009.4
20260509161718 73 291 1.0 4.0 0.00 0.00 0.00 65 1009.4
20260509161403 73 275 1.0 4.0 0.00 0.00 0.00 68 1009.4
20260509161303 73 271 1.0 4.0 0.00 0.00 0.00 67 1009.4
20260509161204 73 251 1.0 4.0 0.00 0.00 0.00 67 1009.4
20260509161103 73 226 1.0 3.0 0.00 0.00 0.00 68 1009.4
20260509161018 73 212 1.0 3.0 0.00 0.00 0.00 69 1009.4
20260509161003 73 208 1.0 2.0 0.00 0.00 0.00 69 1009.4
20260509160903 73 207 1.0 2.0 0.00 0.00 0.00 68 1009.4
20260509160718 73 201 1.0 2.0 0.00 0.00 0.00 67 1009.4
20260509160704 73 198 1.0 2.0 0.00 0.00 0.00 67 1009.5
20260509160603 73 185 1.0 2.0 0.00 0.00 0.00 67 1009.5
20260509160403 72 164 1.0 2.0 0.00 0.00 0.00 68 1009.4
20260509160303 72 160 1.0 2.0 0.00 0.00 0.00 69 1009.5
20260509160203 72 155 1.0 2.0 0.00 0.00 0.00 68 1009.4
20260509160118 72 150 1.0 4.0 0.00 0.00 0.00 70 1009.4
20260509160005 72 135 1.0 4.0 0.00 0.00 0.00 72 1009.4
20260509155919 72 131 1.0 4.0 0.00 0.00 0.00 71 1009.4
20260509155804 72 99 1.0 7.0 0.00 0.00 0.00 70 1009.4
20260509155603 72 78 1.0 7.0 0.00 0.00 0.00 71 1009.4
20260509155504 72 68 1.0 7.0 0.00 0.00 0.00 72 1009.4
20260509155404 71 45 1.0 7.0 0.00 0.00 0.00 72 1009.4
20260509155318 71 49 1.0 7.0 0.00 0.00 0.00 73 1009.4
20260509155306 71 50 1.0 7.0 0.00 0.00 0.00 73 1009.4
20260509155217 71 48 1.0 7.0 0.00 0.00 0.00 73 1009.4
20260509155203 71 55 1.0 7.0 0.00 0.00 0.00 72 1009.4
20260509154904 71 90 1.0 7.0 0.00 0.00 0.00 71 1009.4
20260509154803 71 120 1.0 3.0 0.00 0.00 0.00 73 1009.4
20260509154618 71 139 1.0 3.0 0.00 0.00 0.00 73 1009.3
20260509154603 70 140 1.0 3.0 0.00 0.00 0.00 73 1009.3
20260509154503 70 142 1.0 3.0 0.00 0.00 0.00 72 1009.3
20260509154303 70 152 1.0 3.0 0.00 0.00 0.00 73 1009.3
20260509154204 70 160 1.0 3.0 0.00 0.00 0.00 73 1009.4
20260509154103 70 175 1.0 3.0 0.00 0.00 0.00 73 1009.4
20260509154004 70 193 1.0 4.0 0.00 0.00 0.00 74 1009.4